Renato Franchi - The Story

조회수 33 추천수 0 2019.01.11 14:55:51
GeoffreyHooley7385335
Real Property Funding Recommendation
Flipping by way of the native paper, I noticed a regular advertisement from a "financial planning" agency. Once the price reaches any of those limits, sell it. What the general public are inclined to do in the market is that they anticipate the stock value to rise and maintain it when they should ideally sell it. If the stock takes a south turn, they lost on the deal they could have earned from, or lose more from a deal they might have misplaced only a bit on.

Not unless you wish to." Continue to simplify the request, and assure them that, at this stage, you merely have determined that it is foolish, and wastes helpful time you can be devoting to serving purchasers, to have a enterprise with out having a listing of Potential Superb Purchasers.

In that e book he did again calculations again to the days of the Nice Depression and if you happen to invested monthly since then, your average return would be 33% on common and its not bad contemplating the truth that you did not should spend time questioning whether the index was up or down or whether your latest inventory choose was within the money or not.

If you have any questions about where by and also how you can work with renato franchi, you possibly can call us in the site.
List of Articles
번호
제목
글쓴이 날짜 조회수
1109 Repair My Credit I Dont Know Wherever To Start 13708 MatthiasRetzlaff0353 2019-01-16 28
1108 Home Interior Painting 101 49410 JonSymes798585085252 2019-01-16 25
1107 The Perfect Landscaping Tree 40877 MarceloF9672443 2019-01-16 16
1106 Repair My Credit I Dont Know Where To Start 36485 ElanaDonoghue331717 2019-01-16 40
1105 Google PageRank Toolbar Explained 45000 Shaunte16X07730063 2019-01-16 21
1104 Obtaining The Most From Your Post Submitter Software 43986 LucyBoone1912294 2019-01-16 15
1103 Adult Day Care Center 15860 KrystleGullett3651 2019-01-16 28
1102 What Should I Search For When I Obtain A New Home? 33805 KieraU176776900316 2019-01-16 21
1101 Plumbing Problems May Possibly Require A Plumbing Builder 15618 HellenHeiden28583524 2019-01-16 30
1100 Retiring Vice Chairman Dominates Ford News 30721 LupitaSpady785620 2019-01-16 24
1099 Repair My Credit I Dont Know Wherever To Start 48937 SusannahCorral94 2019-01-16 23
1098 House Internal Painting 101 34316 WilburGurney829906 2019-01-16 30
1097 The Best Landscaping Plant 48544 RosariaSchaw25647 2019-01-16 24
1096 Deion Sanders 1989 Draft Morning Picks 30010 JerrellV4928332461 2019-01-16 28
1095 Your Manual To Temecula Wine Trips 17717 RolandEarsman276081 2019-01-16 21
1094 Marketing Your House To Homebuyers 13503 Estelle231044853016 2019-01-16 24
1093 Repair My Credit I Dont Know Where To Start 23463 SharonWalder170595937 2019-01-16 26
1092 Repair My Credit I Dont Know Wherever To Start 28234 FaeHeng73615477435 2019-01-16 23
1091 Richard E. Grant: The Actor Con-Artists Hate 20456 RacheleSisson700150 2019-01-16 18
1090 Cheap Digital Cameras 42605 AsaWyrick175037117 2019-01-16 21
1089 New Therapy Studied For Sickle Cell Anemia 26226 DinahRuddell76474591 2019-01-16 26
1088 Wholesale NFL Jerseys Free Shipping 21879_all1_ JunkoNicholas581 2019-01-16 19
1087 Coping With Drug Addiction In Your Family 26190 DebraMelson69017011 2019-01-16 23
1086 How To Save Money On The Las Vegas Wedding 13682 JuanaN632330807 2019-01-16 32
1085 Different Dog Training Collars For Different Methods To Train Your Dog 48106 ChauMollison44398792 2019-01-16 25
1084 Your Manual To Temecula Wine Tours 15808 MelodeeGriffin7 2019-01-16 21
1083 Different Dog Education Collars For Different Ways To Train Your Dog 48086 Tabatha62C106855623 2019-01-16 20
1082 Richard E. Grant: The Actor Con-Artists Hate 48167 HoseaUux1202299 2019-01-16 23
1081 Seem Inside To Discover How To Breast Enhancement Results 42907 LynellKaye769905919 2019-01-16 23
1080 Promotional Promotion Specialty Youve Waited Long Enough 40381 MonroeDrz724593 2019-01-16 15
1079 New Discovery Makes It Possible To Punishment Drug 48413 WernerKopf687005574 2019-01-16 25
1078 News And The Web 33670 MiraDulaney2451604 2019-01-16 21
1077 Repair My Credit I Dont Know Where To Start 48995 DarrylMccreary2 2019-01-16 27
1076 Safe Pest Control Tips 11823 CristineHirth2398 2019-01-16 22
1075 Laser Hair Removal - Color Of Hair And Skin 22380 Maximilian74V848 2019-01-16 26
1074 Seniors Could Possibly Get Affordable Supplemental Health Attention Insurance 17543 Layne51G55155947 2019-01-16 28
1073 Items To Consider When Hiring A York City Limousine 16651 Melba75F2331980540 2019-01-16 23
1072 Repair My Credit I Dont Know Wherever To Start 10268 ReneWilkie44773728 2019-01-16 30
1071 Should You Use Credit Counseling Services? 48984 DeanneDevlin88347 2019-01-16 30
1070 What Should I Try To Find When I Purchase A New Home? 15931 Antonia88896651057 2019-01-16 31
1069 Buy Facebook Opinions 22835 TrinaTqg449701538 2019-01-16 19
1068 Computer Repair And Companies Rochester NY 35539 AldaZ3650778704897936 2019-01-16 30
1067 Repair My Credit I Dont Know Where To Start 45738 Consuelo3672426 2019-01-16 23
1066 A Mother's Good Reasons For Picking Montessori 19668 SusannahL938736309899 2019-01-16 19
1065 5 Wonderful Locations To Go Camping In Virginia 20818 KristinRedmond65 2019-01-16 24
1064 Repair My Credit I Dont Know Wherever To Start 29470 FDVRolando08852 2019-01-16 35
1063 Activities Jerseys For Everyday Manner 42538 ClaribelOFlynn1 2019-01-16 21
1062 Safe Pest Control Tips 35494 MireyaJ2327972545992 2019-01-16 19
1061 Evaluation Shopping When Re-Financing 49332 MerrillNanson11972 2019-01-16 15
1060 Discovering Treatment With Drug Detox 23493 HeleneDarwin2619551 2019-01-16 22
1059 Change The Way You Look For Fish Using The GPS-Enabled Humminbird 981 23237 LourdesPvy72401980367 2019-01-16 18
1058 Secure Pest Control Tips 46663 RickiePowers8553 2019-01-16 24
1057 Forensic Accounting 10133 SteveThurman817 2019-01-16 33
1056 Positive Aspects Of Salamba Sirasana 13072 DiannaFernandes 2019-01-16 21
1055 News And The World Wide Web 48878 LuzSweet79793851082 2019-01-16 16
1054 Mosquito Control: Alternatives For Your Need 47910 GreggArndell144107 2019-01-16 25
1053 Preventing The Drug And Alcohol Temptations 49291 Celsa70H99844442 2019-01-16 29
1052 Get Growth Out Of Your Plants 28845 StefanieJung5077 2019-01-16 20
1051 Repair My Credit I Dont Know Wherever To Start 10008 IzettaWahl236412 2019-01-16 28
1050 A Mother's Known Reasons For Choosing Montessori 41299 SaundraWhitfeld37137 2019-01-16 20
1049 Things To Consider When Hiring A York City Limousine 23899 DebGoethe568390717724 2019-01-16 22
1048 Getting The Most From Your Article Submitter Software 36326 DianeE857273868040 2019-01-16 25
1047 The Best Landscaping Tree 37434 LucindaMusgrave51323 2019-01-16 32
1046 Louisiana Property A French Influence 16953 OrvilleForro77421 2019-01-16 23
1045 Adult Day Care Center 49756 GeoffreyV22501441704 2019-01-16 20
1044 Secure Pest Control Tips 22389 LaraRude28973339 2019-01-16 22
1043 Pools And Safety 46762 PearleneMullins 2019-01-16 17
1042 Richard E. Grant: The Actor Con-Artists Hate 32400 TarenLittlefield6 2019-01-16 21
1041 Stopping The Drug And Alcohol Temptations 45114 TaylorCody9864205352 2019-01-16 18
1040 Should You Use Credit Counseling Services? 47291 MaybelleCaudle69 2019-01-16 24
1039 Insect Control: Alternatives For Your Need 20747 MargieZxg9520489 2019-01-16 22
1038 Personal Injury Attorneys 42985 AYSEmil88629662217376 2019-01-16 14
1037 Get You-tube Views 46614 ElijahAcosta146970 2019-01-16 20
1036 Thinking About Purchasing A Motorcycle 49506 HUGSimon81300431 2019-01-16 17
1035 Repair My Credit I Dont Know Where To Start 20192 DavisMuntz943384698 2019-01-16 24
1034 How To Save Money On A Las Vegas Wedding 19061 Oliver29F4978003918 2019-01-16 27
1033 Bugs And Bug Control 41296 Alma21R06199952 2019-01-16 16
1032 10 Suggestions To Keep Your Cleaning Staff Motivated 41498 LieselottePressley6 2019-01-16 19
1031 Louisiana Property A French Influence 21347 AmberWalkom08293142 2019-01-16 30
1030 News And The World Wide Web 32240 SusannahSchnaars7167 2019-01-16 24
1029 New Therapy Studied For Sickle Cell Anemia 45748 LashayErvin0399302 2019-01-16 25
1028 3 Items To Look For In A Florida Mortgage Company Online 26993 WhitneyStidham52810 2019-01-16 24
1027 Confused About Google's List, Link Dampening, & No. Of Links? 37234 IsmaelFelix257142 2019-01-16 23
1026 Injury Lawyers 14336 Luther10Y8034465 2019-01-16 26
1025 Secure Pest Control Tips 22042 HilarioLara817051 2019-01-16 28
1024 Mens Underwear The New Sensation 16768 TammiMcelroy48280 2019-01-16 26
1023 Download Free Puzzles Game 26305 GladysKur41681116782 2019-01-16 27
1022 5 Excellent Places To Go Camping In Virginia 11422 VernonShackelford 2019-01-16 20
1021 Why Choose Dallas Cleaning Services By DBM? 32488 LilianaWestbrook 2019-01-16 25
1020 Household Discount Coupon Book 43194 DellaWhite919726 2019-01-16 17
1019 New Therapy Studied For Sickle Cell Anemia 36765 ONYRhea181993130990 2019-01-16 20
1018 New Therapy Studied For Sickle Cell Anemia 20529 IsobelCorey60278473 2019-01-16 31
1017 Louisiana Real-estate A French Influence 37957 MaynardAtkins59080 2019-01-16 28
1016 Family Discount Coupon Book 22480 AsaCandler412442695 2019-01-16 18
1015 Southern Charm In Nashville True Estate 19614 ReggieXhh9319063677 2019-01-16 33
1014 Bugs And Bug Control 40847 Waylon28W173384613 2019-01-16 25
1013 Tie The Knot Quickly With Las Vegas Wedding Chapels: Aspect 1 30135 StellaT417095545385 2019-01-16 32
1012 Repair My Credit I Dont Know Wherever To Start 25806 ReubenKoehn8041284827 2019-01-16 27
1011 Insect Control: Options For Your Need 36183 MargaretteLadner406 2019-01-16 25
1010 The Best Landscaping Plant 34331 HarrietMuskett51862 2019-01-16 12
1009 Promotional Promotion Niche Youve Waited Long Enough 49754 Hiram07230222063 2019-01-16 26
1008 New Therapy Studied For Sickle Cell Anemia 26226 KatherinaColley9787 2019-01-16 27
1007 Safe Pest Control Tips 36454 BrendaApplegate6473 2019-01-16 26
1006 Personal Injury Attorneys 23224 RickieKavanagh22860 2019-01-16 22
1005 Swimming Pools And Safety 28854 DustyP090741179 2019-01-16 19
1004 Preventing The Drug And Alcohol Temptations 46420 DeneseBond84433122 2019-01-16 25
1003 Pests And Pest Control 16866 MariettaSena6850 2019-01-16 27
1002 Secure Pest Control Tips 34496 TitusSeptimus2738615 2019-01-16 28
1001 Article Writing And Clients: When Things Don't Workout 42704 PenniKnott3942269 2019-01-16 27
1000 Believe You Cannot Create Articles? Consider Again! 27895 ChaunceyRutt24433 2019-01-16 29
999 Insects And Pest Control 48650 LottieCuster49488273 2019-01-16 25
998 Adult Day Care Center 37231 AndraSkinner86159903 2019-01-16 22
997 To Use Or Not To Use Google Adwords 38068 ChelseyGalvin06 2019-01-16 36
996 Personal Injury Lawyers 35422 DemetriaRey301853820 2019-01-16 18
995 Injury Lawyers 16890 AmberWillis127843283 2019-01-16 25
994 On The Web Register For Entertainment Coupon Book 13182 GonzaloWorthen755 2019-01-16 566
993 A Mother's Good Reasons For Choosing Montessori 18204 TaniaHeady31321058301 2019-01-16 25
992 Major Details Of Buy Oxycontin - What's Required 37215 MarkusW7773348624673 2019-01-16 22
991 Wedding Vows: Seven Tips For Personalizing Your Own 32341 BrennaRidenour3117178 2019-01-16 28
990 Plumbing Issues Might Demand A Plumbing Specialist 19269 MavisGaston477864 2019-01-16 20
989 Southern Charm In Nashville Genuine Estate 11645 EvelyneKendrick5 2019-01-16 27
988 3 What To Look For In A Florida Mortgage Company On Line 15184 WarrenAquino843 2019-01-16 22
987 RSS-FEED Distribution Recognized As A Good Search Engine Optimization Relating Campaign 46204 BillSummy980588 2019-01-16 26
986 Repair My Credit I Dont Know Wherever To Start 33452 KingAltman8163372 2019-01-16 23
985 Choosing The Most Readily Useful California Home Loan 44741 HyeOfb642115918545 2019-01-16 29
984 The Dos And Donts When Preparing For Internship 47746 AdolfoBallinger6370 2019-01-16 20
983 Personal Injury Attorneys 41076 JaiStruthers65314 2019-01-16 28
982 Safe Pest Control Tips 19991 NelleCasas79664 2019-01-16 19
981 Governor Schwarzenegger Becomes California To Solar Ceiling Methods 12094 VeroniquePrentice1 2019-01-16 25
980 On The Web Search For Car 27183 Dennis45S589290113 2019-01-16 27
979 Computer Fix And Companies Rochester Nyc 36841 DonettePethebridge09 2019-01-16 29
978 Creating The Content 15725 RonnyBoas14483599860 2019-01-16 21
977 Marketing Your House To Homebuyers 34429 Yanira56D14368779 2019-01-16 21
976 Secure Pest Control Tips 39468 Shelia852428862180704 2019-01-16 25
975 Dildo The Sex Toy Stimulating Peoples Sexual Knowledge. 26678 UlrikeSnow1225512983 2019-01-16 33
974 Repair My Credit I Dont Know Where To Start 39162 ShannaCajigas0396 2019-01-16 30
973 How To Explode Site Visitors To Your Web Site For Totally Free 34413 StephenGpq84425386020 2019-01-16 18
972 Professional Device Vending Whats The Best Way To Get Going? 30766 BrainCrombie1236 2019-01-16 19
971 Secure Pest Control Tips 14250 LeonBeardsley24831625 2019-01-16 32
970 Seniors Can Get Affordable Supple-mental Health Treatment Insurance 45436 ClaribelThibeault0 2019-01-16 25
969 About Free Modest Business Grants 49513 OWDBrooks5949851203 2019-01-16 25
968 Catalog Funds Explained 42322 LettieKitterman22 2019-01-16 25
967 Laser Hair Removal - Color Of Hair And Skin 27111 ShellaThomsen4661203 2019-01-16 23
966 Personal Injury Solicitors 26142 LavondaMolloy892591 2019-01-16 26
965 The Excellent Landscape Design Tree 21536 ShawnaOtto142075607 2019-01-16 27
964 Interested In An Instant Paypal Virtual Bank Account? You Need To Discover This JurgenXpp1378831745 2019-01-16 53
963 Writing For Cash Real Options 15870 MaxHargis53652764982 2019-01-16 24
962 Find The Correct Real Estate Agent For Your Miami Real Estate Experience 31383 ConradNarvaez34053 2019-01-16 33
961 New Therapy Studied For Sickle Cell Anemia 38319 LottieCoombes4488045 2019-01-16 24
960 Locating A Bankruptcy Attorney In New Hampshire 47108 NoeliaSamuels9875 2019-01-16 24
959 Enjoy College Basketball With Online University Baseball Betting 39316 JeromeOlivares956 2019-01-16 21
958 Computer Fix And Services Rochester NY 45431 Jasmin78U680346 2019-01-16 24
957 About Cost-free Tiny Organization Grants 39324 KaiLachance40279 2019-01-16 25
956 Three Causes You Ought To Not Do Cobra 15969 AbrahamNewman09062 2019-01-16 30
955 Get Development Out Of Your Plants 29198 ThorstenHallman736 2019-01-16 31
954 Five Wonderful Places To Go Camping In Virginia 16305 BridgettHeiman9 2019-01-16 24
953 Finding The Most Readily Useful California Home Loan 40434 NatalieBeak53830 2019-01-16 31
952 Repair My Credit I Dont Know Where To Start 22663 ToniaHoover65707 2019-01-16 34
951 Boards - The Business Gold-mine? 17402 AlfredoAsche6270 2019-01-16 27
950 Birthday Events 38720 EstelleFairfax624 2019-01-16 30
949 Repair My Credit I Dont Know Wherever To Start 15800 PriscillaLocklear1 2019-01-16 28
948 Computer Restoration And Companies Rochester Nyc 40199 IolaStansbury55549672 2019-01-16 24
947 Planning Birthday Celebration Themes: Does-it Need To Be A Chore? 16808 UteFuerst3749385775 2019-01-16 24
946 Septic Systems 101 For Home Buyers 45258 Booker16H43414972196 2019-01-16 19
945 How Exactly To Choose The Perfect Wedding Dress 29591 AlonzoMcGoldrick3 2019-01-16 25
944 Five Excellent Locations To Go Camping In Virginia 19904 AshleyHxo561003 2019-01-16 27
943 Computer Restoration And Services Rochester NY 13516 RZVRobby83597309 2019-01-16 27
942 Home Internal Painting 101 18947 FredericMcGruder098 2019-01-16 21
941 Items To Consider When Hiring A York City Limousine 34545 Pam098345087098 2019-01-16 31
940 Repair My Credit I Dont Know Where To Start 24171 RosePaton68493342 2019-01-16 24
939 RSS-FEED Distribution Established As A Superb Search Engine Optimization Relating Strategy 46999 ChristenVanderpool53 2019-01-16 17
938 Bugs And Pest Control 28743 EdwinHerlitz9305 2019-01-16 32
937 How Sick People Get Better Rest 14639 PaulinaBembry871541 2019-01-16 28
936 An Convenient Guide To Constructing Links To Your Web Page 44712 ShanelAkc3377228865 2019-01-16 21
935 Adult Day Care Center 19713 MattieMulligan896041 2019-01-16 25
934 New Therapy Studied For Sickle Cell Anemia 33577 GuyCanipe8940213334 2019-01-16 27
933 The Perfect Wedding Dress For The Bride 32099 Robin835683502872827 2019-01-16 28
932 Buy Youtube Views 45851 FNECarmon649839 2019-01-16 26
931 About Free Of Charge Tiny Enterprise Grants 18138 LoriSancho901118312 2019-01-16 27
930 Governor Schwarzenegger Becomes Florida To Solar Ceiling Systems 21297 MaricelaButz792704 2019-01-16 24
929 Repair My Credit I Dont Know Wherever To Start 35015 LolaBrothers80292 2019-01-16 19
928 Wedding Vows: Seven Tips For Personalizing Your Own 34026 JohnieLarge058981 2019-01-16 25
927 Septic Systems 101 For Residence Buyers 28061 Lilia0264432750715 2019-01-16 26
926 Ending The Drug And Alcohol Temptations 28127 VickySchweizer20216 2019-01-16 23
925 Insects And Insect Control 37755 NoelWeld3038497982526 2019-01-16 26
924 Pests And Bug Control 13940 JamisonQuisenberry 2019-01-16 27
923 Secure Pest Control Tips 49587 GIHHouston33688323 2019-01-16 22
922 Insects And Pest Control 16666 VVKIrving531968509867 2019-01-16 24
921 Computer Restoration And Services Rochester Nyc 22608 NikoleHatcher32 2019-01-16 29
920 Can I Order Crocs Shoes On-line? 15218 CarltonMcSharry 2019-01-16 19
919 Impress With Great Birthday Party Invitations 17958 AmosMcCutcheon047 2019-01-16 33
918 Finding The Most Useful California Home Loan 17920 LucileVyr1217875393 2019-01-16 25
917 Find The Right Real Estate Agent For Your Miami Real Estate Experience 26354 MerriCrane52164975 2019-01-16 27
916 Cheap Digital Cameras 27190 Julissa83W7808749875 2019-01-16 23
915 How Sick People Progress Sleep 22083 HamishGoad774239 2019-01-16 21
914 Comparison Shopping When Re-Financing 43282 MollyHarms0627378 2019-01-16 24
913 3 Items To Look For In A California Mortgage Company On Line 49061 KelleeKilleen480 2019-01-16 23
912 Plumbing Issues Might Need A Plumbing Contractor 14583 JesusHay8553114 2019-01-16 25
911 How Relevant Is Your Ecommerce Internet Web Site Design? 20867 Arnoldo7722705441108 2019-01-16 26
910 Secure Pest Control Tips 46912 LatoyaQ41734393 2019-01-16 30
909 New Therapy Studied For Sickle Cell Anemia 12871 JanieWild301042 2019-01-16 20
908 The Perfect Landscaping Tree 34744 EvaWestgarth2933 2019-01-16 28
907 Marketing Your House To Homebuyers 14398 MickeyRobins11848 2019-01-16 19
906 Understanding And Using Myspace Privacy Settings 40143 Francesco87V8628590 2019-01-16 32
905 Secure Pest Control Tips 31918 TedRoemer2509828334 2019-01-16 25
904 Should You Use Credit Counseling Services? 49142 CDWVernita91628 2019-01-16 30
903 Personal Injury Solicitors 32777 CharlesSimpkinson 2019-01-16 20
902 Governor Schwarzenegger Becomes Florida To Solar Top Systems 28940 CliffDelee18669112 2019-01-16 27
901 Repair My Credit I Dont Know Where To Start 28508 ColletteNivison8 2019-01-16 26
900 Getting High... Is It Possible To Log Off It? 36748 StepanieBerkman08 2019-01-16 29
899 Insects And Bug Control 23026 AnnabelleBlackett56 2019-01-16 36
898 Find The Correct Real Estate Agent For Your Miami Real Estate Experience 26160 LoriIsh692997780 2019-01-16 31
897 Buy You-tube Views 43728 Mose16R40153039973190 2019-01-16 21
896 Stopping The Alcohol And Drug Temptations 36846 RollandPci676916737 2019-01-16 26
895 Private Pools And Security 35501 QuintonTolmie0446935 2019-01-16 29
894 How Sick People Improve Sleep 32836 ManuelaSpeer089779160 2019-01-16 29
893 New Therapy Studied For Sickle Cell Anemia 30708 JudiKallas7454777344 2019-01-16 22
892 Injury Solicitors 18020 WayneBaber940855 2019-01-16 30
891 Injury Solicitors 16821 FloridaAndersen42 2019-01-16 24
890 The Health Benefits Of Chlorella And Gigartina Red Marine Algae 38291 MarisaEoe9216100375 2019-01-16 29
889 Repair My Credit I Dont Know Where To Start 49393 FloridaCurr3589 2019-01-16 26
888 New Therapy Studied For Sickle Cell Anemia 18685 LorrieBlackwood73503 2019-01-16 24
887 A Lot Art And More In Vero Beach 28590 WinonaZ1229920174 2019-01-16 20
886 Find The Correct Real Estate Agent For Your Miami Real Estate Experience 15255 IndianaGiles032336 2019-01-16 26
885 Player Profile: Joe Moneymaker 28826 NataliaWitt3721804 2019-01-16 23
884 Safe Pest Control Tips 33530 JulianaXhn89743 2019-01-16 30
883 Your Manual To Temecula Wine Trips 48288 DannielleLuce9404975 2019-01-16 24
882 Dirk Goes Wild And Suns Fail To Cover! 23474 ValenciaNorthey 2019-01-16 32
881 Significantly Art And A Lot More In Vero Beach 18723 LatanyaNoskowski663 2019-01-16 25
880 Repair My Credit I Dont Know Where To Start 22606 RayfordIsabelle82973 2019-01-16 27
879 Creative Birthday Celebration Ideas 32298 AlishaForce7262 2019-01-16 27
878 Seniors Could Possibly Get Inexpensive Supple-mental Health Attention Insurance 45568 CornellTramel4781828 2019-01-16 19
877 Bugs And Pest Control 35369 InesLsf9968468845 2019-01-16 28
876 Bugs And Pest Control 16400 MarcosMenkens588478 2019-01-16 24
875 Find New Automobile Dealer 36211 JaxonRry9381351 2019-01-16 21
874 Online Computer Technology Degrees 25303 ReynaldoMcGrowdie491 2019-01-16 23
873 Airsoft Guns: A Launch 14900 CandaceHibner133606 2019-01-16 24
872 Repair My Credit I Dont Know Where To Start 43998 Reginald1422656861048 2019-01-16 30
871 Set The Fun In-the Plink, Get BB Weapons? 26360 AracelyStrong5627 2019-01-16 25
870 Your Manual To Temecula Wine Tours 19155 AidaFernandes1395 2019-01-16 35
869 Computer Fix And Services Rochester Nyc 24196 MyrtisLeblanc72 2019-01-16 24
868 National Organization Recognizes Achievement Of Orange County Schools 17605 SebastianDesir31621 2019-01-16 34
867 Louisiana Real Estate A French Influence 24159 GaleBelton98517234 2019-01-16 26
866 Three Motives You Ought To Not Do Cobra 42241 JackiWalck05190 2019-01-16 28
865 A Mother's Known Reasons For Choosing Montessori 12546 Mayra08V6227490 2019-01-16 24
864 What To Consider When Hiring A York City Limousine 28077 KatherinArreguin2193 2019-01-16 31
863 Nevada Jobs 39537 MaritaQud86788788 2019-01-16 29
862 The Perfect Wedding Dress For The Bride 16269 NaomiMate92745692287 2019-01-16 26
861 Wildfire Productions Announces Release Of Most Recent Client Website: Just Art Related 16934 ErnestineFornachon18 2019-01-16 27
860 Bugs And Bug Control 42373 ShantellSilver059 2019-01-16 25
859 Governor Schwarzenegger Turns Florida To Solar Roof Methods 32062 KSPGeraldine7596 2019-01-16 26
858 The Good Results Brought By A Medical / Nurse Staffing Agency Business 32767 JustinaCarver99 2019-01-16 19
857 Retiring Vice Chairman Dominates Ford News 43792 CelesteStarke9365 2019-01-16 25
856 3 What To Look For In A Florida Mortgage Lender Online 17226 LyndaSliva55020564 2019-01-16 25
855 Swimming Pools And Security 37060 ArethaBrownless99052 2019-01-16 23
854 Personal Injury Solicitors 12556 JeannetteBodnar 2019-01-16 27
853 Deion Sanders 1989 Draft Time Picks 27415 PhillipDonald789 2019-01-16 24
852 If The Stocks Commence At Just Beneath A Dollar, How Can An Investor Hope To Grow To Be Wealthy In The Finish? 39137 GeorgettaProbst 2019-01-16 22
851 Types Of Coffee Packages 31069 AlanD981107322950929 2019-01-16 29
850 Find The Correct Real Estate Agent For Your Miami Real Estate Experience 38855 MarilynMcmanus397057 2019-01-16 26
849 The Mean KSC Airsoft Guns 39378 ZJSLashawnda78438 2019-01-16 27
848 About Free Small Organization Grants 30388 SashaSkeyhill081 2019-01-16 20
847 Septic Systems 101 For Residence Buyers 20780 Edna89394586975 2019-01-16 18
846 Repair My Credit I Dont Know Wherever To Start 47385 CNTAgustin427772021 2019-01-16 22
845 New Therapy Studied For Sickle Cell Anemia 41872 LavadaSchell157409 2019-01-16 22
844 Getting Poker Guidance In A Poker Community 46955 BiancaMasterson354 2019-01-16 19
843 Little Roses Will Change The Look Of Your House 47155 ClarissaPenney832359 2019-01-16 21
842 Acquiring An Accredited On The Web Bachelor Degree 40118 CelinaConway085039 2019-01-16 19
841 Can Laziness Make You Rich? SusanneGruner366724 2019-01-16 19
840 How To Explode Visitors To Your Site For Free Of Charge 27907 DanieleB2115449218825 2019-01-16 20
839 News And The Internet 32322 IgnacioHudak95354 2019-01-15 26
838 News And The Internet 33689 AnthonyBarrow35515063 2019-01-15 22
837 The Perfect Landscaping Tree 38657 KamiG7517392890685003 2019-01-15 22
836 Laser Hair Removal - Color Of Hair And Skin 30278 AmelieAndre11539 2019-01-15 22
835 Personal Injury Attorneys 18290 AlizaBobadilla5123 2019-01-15 24
834 New Therapy Studied For Sickle Cell Anemia 43725 ThereseTen7070260320 2019-01-15 22
833 Southern Charm In Nashville Genuine Estate 17447 Chase08X4170415540 2019-01-15 19
832 Septic Systems 101 For Home Buyers 31389 Ruth68G00810593578586 2019-01-15 23
831 Drug Rehabilitation - No Effortless Alternatives 29224 KaceyDayton445141 2019-01-15 18
830 Small Flowers Will Change The Design Of Your House 27885 Eartha318170639 2019-01-15 22
829 Repair My Credit I Dont Know Where To Start 41447 TawannaG1298213 2019-01-15 13
828 Find The Appropriate Real Estate Agent For Your Miami Real Estate Experience 25264 PhilipChapple51074 2019-01-15 24
827 Pests And Pest Control 48343 KirkGoodin1963173389 2019-01-15 21
826 Bug Control: Options For Your Need 10945 MuoiJasprizza48 2019-01-15 19
825 A Mother's Good Reasons For Choosing Montessori 21556 RichieNis166186 2019-01-15 26
824 Best Baby Games 19304 Rachael98D75389708185 2019-01-15 27
823 Southern Charm In Nashville Real Estate 24087 MarilynnPrerauer4 2019-01-15 26
822 Laser Hair Removal - Color Of Hair And Skin 16041 ElveraJaffe20054102 2019-01-15 24
821 Secure Pest Control Tips 37832 SQWAmber4817994238030 2019-01-15 24
820 The Mean KSC Airsoft Guns 31790 Adell15Z0337657600043 2019-01-15 21
819 Safe Pest Control Tips 22817 MaxineEbersbacher3 2019-01-15 25
818 Working Music 43484 PearlBlaxcell4068 2019-01-15 19
817 Richard E. Grant: The Actor Con-Artists Hate 15699 LeonaBorrego4700 2019-01-15 27
816 Plumbing Dilemmas May Possibly Require A Plumbing Company 48435 Carma21A382143263769 2019-01-15 26
815 Deion Sanders 1989 Draft Morning Picks 12943 NicholCissell2525708 2019-01-15 28
814 New Therapy Studied For Sickle Cell Anemia 24081 IrishWicken82793124 2019-01-15 26
813 Naturally Stop Acid Reflux AutumnMueller045 2019-01-15 22
812 Alcohol Rehab 11733 ShannonAckermann5269 2019-01-15 23
811 How To Save Money On The Las Vegas Wedding 46122 StephanyFerry763216 2019-01-15 33
810 The Good- The Bad And Female Viagra Olivia73N137390302 2019-01-15 18
809 Amethyst Stone Price, Benefits DeloresBracewell 2019-01-15 20
808 Many Types Of Facts You Need To Understand About Sbobet Asia Choices RosellaMccartney 2019-01-15 30
807 تور مشهد PercyT008187616 2019-01-15 27
806 Your Number One Choice To Watch Movies Online CorneliusDimattia702 2019-01-15 30
805 Sterling Jewelers Are Very Much Concerned About The Present Market Demand! QuinnMeece6298801515 2019-01-15 20
804 Personal Injury Attorney - Sure-fire Method To Success 38893 JulietaWahl32801458 2019-01-14 28
803 Understanding And Using Myspace Privacy Settings 42961 Jonathon8145574062570 2019-01-14 38
802 SEO - Four Steps To Quick Success 11826 DominiqueBook75 2019-01-14 23
801 Nike Air Force Ones 27635 LarryMacBain42235 2019-01-14 21
800 What To Expect From An Adobe Photo Shop Tutorial 20406 ErinCarper64061844 2019-01-14 24
799 Knowledge And Using Myspace Privacy Settings 34773 Mabel2167825246374674 2019-01-14 22
798 Knowledge And Using Myspace Privacy Settings 13313 GretaEllis930402 2019-01-14 25
797 Tuning Into Orange County Schools 16782 JackLamond2326707 2019-01-14 34
796 Custom Air Force Ones 23441 HXARenaldo7848790809 2019-01-14 26
795 Forums And The Coin Of Advertising And Marketing 38872 KelleyPetrie88585075 2019-01-14 22
794 May England Get The Fifa World Cup? 38042 UCZLeon14767970982736 2019-01-14 30
793 Depression: Make Your Days More Happy 43834 UtaCarty465069481868 2019-01-14 24
792 Finding And Adding An Awesome Profile Lay-out 38632 JillianVonwiller4892 2019-01-14 29
791 Activity Book Coupon 2006 46021 RebeccaClayton16594 2019-01-14 31
790 Obtain A Healthy Mouth With These Useful Tips 29001 RoslynDeNeeve30855 2019-01-14 28
789 Using MySpace Codes To Improve Your MySpace Page 48277 GeorgiannaHebblethwai 2019-01-14 24
788 Finally A Law Firm That Provides It Best In Terms Of Overseas Corporations. 31812 SolomonFryman493716 2019-01-14 32
787 SEO - Four Steps To Quick Success 48820 LawerencePlate0 2019-01-14 22
786 Clothing And Equipment In Fitness, Sports And Re-creation 37270 EwanGross75590729 2019-01-14 27
785 Does Your Dress Signal Handle Flip Flop? 13096 MinnieVesely37064 2019-01-14 23
784 The Perfect Wedding Dress For The Bride 49229 WeldonIsaacson510 2019-01-14 22
783 Search Engine Submission Companies In India 48150 EvangelineLqy428 2019-01-14 36
782 Using MySpace Codes To Improve Your MySpace Page 46126 ChristoperOKeefe 2019-01-14 34
781 Most Readily Useful Lawyer Services 24507 DerrickArtis494774 2019-01-14 33
780 Top 3 - Basketball People Incomes 32086 LachlanOtis923079 2019-01-14 21
779 Error Authenticating. Either Bad Username/Password Or Your Account Has Outstanding Payments Due 47317 ManuelBelgrave194157 2019-01-14 30
778 Detoxify Your Body By Way Of A Detox Foot Patch 21878 CiaraBoler76540736 2019-01-14 26
777 Las Vegas Weddings - Discover More About Las Vegas Weddings 22543 ElmoLittleton477 2019-01-14 30
776 Depression: Make Your Days Happier 36734 MarisolLundie58138 2019-01-14 18
775 How Exactly To Select The Perfect Wedding Dress 31847 LonBnv50651195766620 2019-01-14 26
774 How Relevant Is Your Ecommerce Internet Website Design? 18833 VeroniqueRosario32 2019-01-14 24
773 Coupon Codes: Conserving Without The Clipping 15494 MichelleBuckland4 2019-01-14 29
772 Download Free Puzzles Game 31323 TrinaDanglow4587 2019-01-14 33
771 Shop Perfectly And Spend Less 26584 Fredericka46A58 2019-01-14 26
770 Embroidery Digitizing Forums Are Of Great Help 16801 GabrielCurmi4026 2019-01-14 19
769 Handle In Time Management 28076 BeaTedesco239173 2019-01-14 23
768 Using MySpace Codes To Boost Your MySpace Page 40636 RigobertoHeckman2390 2019-01-14 17
767 Show Your Correct Colours With Beads 26214 RichelleVachon08540 2019-01-14 23
766 How To Find The Ideal Online Video Clip Tutorial? 37219 CharleyBertram8968 2019-01-14 33
765 Greatest Ideas For Writing A Fantastic How-To Report 16157 DorisZiesemer09572 2019-01-14 26
764 Guide In Purchasing A Home In Las Vegas 40879 ChandraBowers75 2019-01-14 29
763 Miami Beach, Florida Film And Entertainment - A Complete Review. 23500 CRYNigel77428840378 2019-01-14 21
762 Cristiano Ronaldo Biography 35564 GloriaCkz191926179923 2019-01-14 30
761 Remodeling A Bathroom And Re-finishing And Restoring Baseboard Heating Factor Covers 40684 PhilipSchulze269 2019-01-14 19
760 Using Myspace Security - Placing Your Page To Personal 28737 BlondellSeiler24 2019-01-14 34
759 Clone Golf Clubs- Are They Worth It?- Part 1 28908 DeannaBickford2 2019-01-14 20
758 Wholesale Nike Air Force A Single Footwear 22318 SheritaHelena813 2019-01-14 24
757 How Exactly To Create Your Own Vanity Plates 29409 TTNJohnny738470801204 2019-01-14 27
756 Index Distribution Has Replaced The Search Engine Submission 43723 Aiden40E6644190533115 2019-01-14 24
755 Plan Your Immigration At Each And Every Stage 10019 WilfordGurney53119 2019-01-14 25
754 Appreciate School Baseball With Online University Basketball Betting 40658 Bebe203689363791551 2019-01-14 27
753 All You Require To Know About Hair Follicle Drug Testing 12128 HazelHalfey2969 2019-01-14 31
752 How You Can Discover The Ideal Online Video Tutorial? 12631 MalorieTullipan1 2019-01-14 23
751 Creating The Content 22861 April1790343679074994 2019-01-14 28
750 Residence Improvement Tips For The Day-to-day Property Owner 27569 ReneeCalder252574 2019-01-14 32
749 What You Should Check For When Buying A Home In Las Vegas 35171 PeterCurtiss5813 2019-01-14 30
748 Attrack An Avalanche Of Compliments About Your Healthier, Match And Amazing Body 28071 PalmaGuzman453864 2019-01-14 30
747 Los Angeles Schools Work Nations Second Greatest Area 19810 AlisiaDreher5481978 2019-01-14 26
746 Creating The Content 22192 MohammedToohey76 2019-01-14 27
745 Forum Paid Posting 30048 JeromeMontes23470647 2019-01-14 34
744 Phoenix Insurance - How To Get The Top Phoenix Insurance Prices 42378 RoslynWilmoth79 2019-01-14 28
743 Remodeling Your Bathrooms And Refinishing And Restoring Baseboard Warming Aspect Includes 17920 DongYuille899237004 2019-01-14 32
742 How Exactly To Create Your Own Personal Vanity Plates 17365 PauletteWilkie8790 2019-01-14 25
741 Cock Rings Sex Toy For Guys 21227 LaraeFreud311111441 2019-01-14 21
740 Attempt These Tips If You Have Plumbing Issues 24638 DennisMowll926212661 2019-01-14 26
739 What Exactly Is An Affiliate System 19444 OlenQuinlivan9028 2019-01-14 27
738 Locating A High Top Quality Author 40803 AdrienneCain48333863 2019-01-14 25
737 Sports Tops For Everyday Style 46487 LottieRowlandson 2019-01-14 32
736 What To Do For Enlarged Prostate Or For Prostate Cancer 39238 Brodie88136836087464 2019-01-14 33
735 Believe You Cannot Create Articles? Feel Once Again! 49143 SherlynGlossop567769 2019-01-14 21
734 Error Authenticating. Either Bad Username/Password Or Your Account Has Outstanding Payments Due 32533 ElviaRowe61700052860 2019-01-14 29
733 Error Authenticating. Either Bad Username/Password Or Your Account Has Outstanding Payments Due 20464 IsisAiston1124287651 2019-01-14 25
732 Hold Your Ultimate Wedding Reception Inside The Stunning Las Vegas Wedding Venues 24567 Lilliana483161897 2019-01-14 34
731 May Britain Get The Fifa World Cup? 18799 TheronFregoso32427 2019-01-14 26
730 The Connection Between Reciprocal Links And SEO 23125 DorcasVandiver2660 2019-01-14 28
729 Keeping On Money When Shopping For Groceries 31819 MollieHowland21555 2019-01-14 29
728 Kid Custody And Seeing Your Children - Visitation 20803 VickieM2420701592 2019-01-14 32
727 The Exclusive Appeal Of Miami Beach Real Estate 10458 BrockBrinkman17893 2019-01-14 31
726 Common Affiliate Marketing Errors 45060 ToniMcWilliams180 2019-01-14 33
725 New Way In The Press Releases Creating 18772 MargaritoYdp172 2019-01-14 24
724 Error Authenticating. Either Bad Username/Password Or Your Account Has Outstanding Payments Due 17077 BookerMajors8505 2019-01-14 26
723 Using Myspace Protection - Setting Your Page To Private 41166 LucianaRatliff5368 2019-01-14 26
722 Exhilaration And Inspiration For Your Home Improvement Projects 17535 CameronSelleck6701 2019-01-14 28
721 How To Find Out The Most Ideal Place To Buy A Property In Las Vegas 10287 FelixTaormina79 2019-01-14 24
720 Affordable Health Insurance In Michigan 11111 PhillisP875474759 2019-01-14 28
719 New Way In The Press Announcements Writing 28184 ReginaldCulpin1079 2019-01-14 29
718 Distinct Types Of Adobe Photo Shop Tutorials 37450 Angelica02P6406 2019-01-14 27
717 New Way In-the Press Announcements Creating 40795 JerrodMill19125449 2019-01-14 27
716 Never Underestimate The Power Of The Forum 20318 KristanLansell65 2019-01-14 25
715 Child Custody Agreement And Taxes 35824 CerysFitzpatrick0 2019-01-14 22
714 Using MySpace Codes To Improve Your MySpace Page 46728 CraigPenn101951830040 2019-01-14 27
713 Medicine Rehabilitation An Introduction 24745 ZellaWilding53350396 2019-01-14 25
712 Football Q&A: Baseball Details May Very Well Not Have Known 14479 DamianHoffnung74 2019-01-14 33
711 The Search For That Trusted Mechanic 25415 TimothyRobe9271545 2019-01-14 29
710 Dental Care Recommendations That You Can Not Live WIthout 27852 CathyHammons02862 2019-01-14 25
709 What Is Inside Your Hiking Water? 49855 Hulda9655321567758 2019-01-14 31
708 The Connection Between Reciprocal Links And SEO 23935 ArnoldRoark38794725 2019-01-14 22
707 What's Inside Your Hiking Water? 29597 JonathanProwse77 2019-01-14 29
706 What Things To Consider When Selecting A Kailua Hotel 40829 JaiRios92732614 2019-01-14 31
705 Take This Suggestions On Travel To Use It Today 38582 MicahBaccarini4936 2019-01-14 27
704 Helping Americans With Spinal Cord Disabilities 33768 Leonida99W8774020060 2019-01-14 23
703 Remodel Your Bath-room For Large Returns 13139 AdeleMaier12891 2019-01-14 29
702 Fulfilling Your Dreams Of Luxury With The Help Of Bmw Los Angeles 20051 KristianFennell3100 2019-01-14 35
701 The Ten Laws Of Choosing The Right Wedding Dealer 45370 CharisMeza01692 2019-01-14 35
700 What Is The PayPal Forum For? 20053 JustineRicketson815 2019-01-14 31
699 The Connection Between Reciprocal Links And SEO 33728 HarleyKinard4012069 2019-01-14 20
698 Factors In Buying A Home In Las Vegas 23745 StephaineMosher366 2019-01-14 31
697 Golf Swing Technicians May Be Improved Very Quickly 15981 Wilda78P990399995 2019-01-14 30
696 Creating The Content 14714 AudreyMondragon243 2019-01-14 27
695 Put Good Garden Furniture 20212 DickLutz6179171340587 2019-01-14 27
694 Typical Affiliate Advertising And Marketing Errors 18053 BettieQ68139399482569 2019-01-14 41
693 Ibanez Guitars At The 2006 NAMM Show 38363 PoppyMann933292472 2019-01-14 23
692 Top 3 - Basketball People Wages 46965 ErlindaLoewenthal55 2019-01-14 34
691 What Your Minivan Must Have 25236 MeredithQ98088286 2019-01-14 34
690 Entertainment Book Coupon 2006 13318 ErmaChipman64441 2019-01-14 26
689 Observing Child Custody Legal Forms 22781 Kristina575181201 2019-01-14 22
688 Finding And Adding A Very Good Profile Lay-out 32037 KentonHodgson65505896 2019-01-14 35
687 New Way In-the Press Announcements Creating 27900 ElkeDitter0322441 2019-01-14 26
686 Store Effectively And Save Money 20964 ClairToll18058687537 2019-01-14 28
685 Comparing Different E-Commerce Shopping Carts 12886 ClaudetteSteiner9139 2019-01-14 29
684 تور تایلند HermanKhp666883138 2019-01-14 29
683 The Truths And Myths Of Masturbation 35025 FlorrieMcKean303696 2019-01-13 27
682 Details About Charcoal Water Filters 19285 ElbertLeibowitz27271 2019-01-13 24
681 What Your Minivan Ought To Have 14577 RenatoMcKean34428 2019-01-13 34
680 Guidelines To Get The Best Home In Las Vegas 12082 CalebCastellanos2807 2019-01-13 26
679 Bath-room Vanities And Bedroom Mirror Models - Sophisticated And Practical Furniture To Convert Your Property 34275 RhondaDobie0586 2019-01-13 25
678 New Way In The Press Announcements Writing 23410 ClarissaNowlin9472 2019-01-13 33
677 Shower Heads With Filters 47692 ValMorford9911849938 2019-01-13 34
676 New Way In The Press Announcements Writing 30630 SandraShrader289989 2019-01-13 29
675 The Most Effective Financial Obligation Administration Programs - How To Decide On 16445 ShanonSands2114183 2019-01-13 29
674 How To Get Started In Import Export MarcellaMansell295 2019-01-13 44
673 Bathroom Vanity Will Exite The Innovative Renovator 12380 KeenanMcCabe608 2019-01-13 37
672 New Way In The Press Announcements Writing 26919 ManuelMehler56664548 2019-01-13 31
671 Plugged Drains Kill - Home Elevators Hydrogen Sulfide 43916 JorgMarmion200732370 2019-01-13 35
670 Free Download Advance Pc Game 14250 JocelynWoollacott4 2019-01-13 33
669 New Way In The Press Releases Writing 21098 ClemmieSeale16194597 2019-01-13 23
668 The Objective Of The Salvage Car Auction 43905 Shanon78F648742950 2019-01-13 43
667 Great Grand-parents Use Mail 45730 Adriene1268792128 2019-01-13 31
666 Self Support Techniques Are Accessible To Take The Anger Out Of Your Method 35855 Janeen96M3744655578 2019-01-13 41
665 Think You Can't Write Articles? Believe Once Again! 23190 DarioGreenwood943 2019-01-13 30
664 Cave Painting Book Get Specific In Your Art 45437 MarylouTrimble3 2019-01-13 21
663 Reactive Hypoglycemia And Weight Training: To Be Aware Of Be Cuisine! FinlayLauer7140 2019-01-13 173
662 Addiction Treatment Centers For Substance Abuse 47236 LizaSwenson2349765 2019-01-13 33
661 Car Insurance Rates 33188 WinonaCopley25084 2019-01-13 34
660 Only Say Peer Pressure And No: Healthy Eating 22330 ElissaKosovich603558 2019-01-13 29
659 Golf Swing Aspects Could Be Improved Rapidly 36977 MattManess3920522 2019-01-13 39
658 Very Best Suggestions For Writing A Excellent How-To Write-up 35440 LarueRagland208924 2019-01-13 30
657 Impact Of Press Release In SEO 34827 TaylorEnglish92057 2019-01-13 25
656 Psoriasis- Relief From Psoriasis 15649 LindsayBledsoe5874140 2019-01-13 22
655 How Rage Management Courses Can Help You 12451 CliftonLink8700079929 2019-01-13 32
654 Three Proven Approaches To Handle Your Writing Panic 33247 CaseyJiron6107755 2019-01-13 27
653 Automotive Salvage And Environmental Safety 13768 JodiFrye78529873 2019-01-13 28
652 Once Your Cars Parts Are Hard To Find 29287 MckenzieHopkins924 2019-01-13 30
651 Vanity Table And Bench Set The Beautiful Way To Keep Organized 22980 Tammie0317672474 2019-01-13 32
650 Period Cancellation 37791 MonaKarr297398849890 2019-01-13 26
649 Interesting And Beautiful Landscape Painting Books 39636 JanieDrew215548369 2019-01-13 18
648 Discount Coupon Codes: Saving Without The Clipping 31319 Alena4654144975224142 2019-01-13 40
647 Finding And Adding A Cool Profile Layout 44274 AddieBracewell429 2019-01-13 32
646 Bathroom Vanity Will Certainly Exite The Creative Renovator 34964 NicoleNagle86193 2019-01-13 25
645 Custom Made Wedding Rings Brief Info About It TristaIzz807021 2019-01-13 22
644 Mini Roses Are Likely To Change The Look Of Your Home 26864 AnnettaChildress32 2019-01-13 27
643 Error Authenticating. Either Bad Username/Password Or Your Account Has Outstanding Payments Due 18487 LillieKilpatrick 2019-01-13 29
642 Forums - The Company Gold Mine? 17187 VernitaCapuano127 2019-01-13 32
641 Between Scholarship Programs And Student Loans 42433 FlorEverett61559046 2019-01-13 22
640 Getting Used Bath-room Vanities 32633 OctaviaJenyns5852779 2019-01-13 20
639 Error Authenticating. Either Bad Username/Password Or Your Account Has Outstanding Payments Due 42881 CarinSpada1564634 2019-01-13 35
638 Index Distribution Has Changed The Search Engine Submission 14353 Buddy916649732257054 2019-01-13 23
637 Uncover On-line Auto Loan For Your Automobile 43928 FrankHaydon585355309 2019-01-13 26
636 Search Engine Submission Companies In India 42245 KimNpj053874846981116 2019-01-13 28
635 An Quick Guide To Constructing Hyperlinks To Your Internet Site 38744 JensR352975597324 2019-01-13 28
634 Bachelorette Party Ideas - Make A Women Last Times As Just One Woman Unique 11844 Colin203013666316106 2019-01-13 32
633 Creating Money On The Web Is A Actual Possibility 49328 MargaritaBoyette 2019-01-13 27
632 New Way In-the Press Announcements Creating 47231 Nancee70Q19912233558 2019-01-13 35
631 Voucher Codes: Saving Without The Clipping 47852 DannieDsj3406809141 2019-01-13 32
630 New Way In-the Press Releases Writing 31957 SimonDesir7213467 2019-01-13 34
629 The Umbrella Of Nuclear Mushroom 45118 KoryDunkley308825 2019-01-13 33
628 Most Effective Thai Delivery Food Restaurant Las Vegas - Finding Hot Thai Food Delivered Super Fast In Vegas 46757 MonicaCassidy25314 2019-01-13 31
627 Small Flowers Will Change The Design Of Your Home 49870 StaceyDeeter34048 2019-01-13 33
626 New Way In-the Press Announcements Creating 30681 RileyAlanson366 2019-01-13 27
625 The Achievement Brought By A Medical / Nurse Staffing Agency Organization 39380 BellArmijo90120930518 2019-01-13 27
624 Understanding And Using Myspace Privacy Settings 25272 ConstanceMaguire53 2019-01-13 25
623 Memorialize The Actual Marriage Ceremony Inside The Stunning Las Vegas Wedding Venues 15772 Virginia31V538219245 2019-01-13 28
622 Feel The Luxor Hotel In Vegas 18567 QXJKala218201378206 2019-01-13 25
621 Guide In Buying A Home In Las Vegas 42646 Esteban54677299778 2019-01-13 28
620 Discover Good Assistance With Selling Our Home In Las Vegas NV 32224 DaniParadis97143 2019-01-13 28
619 Low Priced Las Vegas Hotel Hotels 34430 JannetteChristianson 2019-01-13 78
618 2006 Entertainment Coupon Book 31666 ChauSigel557332526 2019-01-13 24
617 SEO - Four Steps To Quick Success 18533 BrandenLlq4786187462 2019-01-13 19
616 Index Distribution Has Changed The Search Engine Submission 27436 PamPetherick33262 2019-01-13 30
615 Creating The Content 22192 AlineBannan3864265 2019-01-13 32
614 Bath-room Vanity Will Certainly Exite The Creative Renovator 14622 LeonelGarside126 2019-01-13 30
613 Airsoft Guns: A Launch 36679 LeonelLawler72899826 2019-01-13 36
612 Enjoy Your Ultimate Marriage And Reception Located At Incredible Las Vegas Wedding Venues 31556 MasonFowles9808 2019-01-13 29
611 Discount Coupon Codes: Conserving Without The Clipping 24337 ShellaDeuchar49 2019-01-13 23
610 Used Car For Sale 44864 Camilla67A87766365248 2019-01-13 30
609 Looking At Las Nevada Holiday Houses 17825 KirstenMartindale84 2019-01-13 27
608 Down Load Free Puzzles Game 10106 GBUAline05673002 2019-01-13 18
607 Ecommerce: Mashups And Future Site Function 38230 StaceyQ2924228155 2019-01-13 23
606 SEO - Four Steps To Quick Success 32479 WilliemaeHoyle256 2019-01-13 22
605 To Use O-r Not To Use Google Adwords 46245 Esther078649415640 2019-01-13 30
604 Getting Poker Advice In A Poker Forum 36887 RobertaParedes15 2019-01-13 38
603 Items To Expect From An Adobe Photo Shop Tutorial 37228 RochellCary9929773 2019-01-13 33
602 Search Engine Submission Companies In India 49100 AngusHiller126863 2019-01-13 28
601 Animal Rabbits 48062 HowardHer8465630 2019-01-13 35
600 Hatha Yoga 36672 MRWKelli5522284877 2019-01-13 30
599 Suggestions To Find The Best Home In Las Vegas 30792 BrodieAbernathy79 2019-01-13 20
598 Bathroom Vanities And Room Counter Units - Elegant And Useful Furniture To Transform Your House 48630 CeciliaGud09679 2019-01-13 32
597 Get Progress From Your Own Plants 28496 RegenaLowry2099210757 2019-01-13 29
596 New Way In-the Press Releases Writing 45327 DanteLamble76760462 2019-01-13 28
595 Do Not Fall Pray To The Fake Promises Of Free Weight Loss! 49893 Taj158559129096 2019-01-13 26
594 Paris: Hotel Planning 45023 CarmaKilfoyle099 2019-01-13 23
593 How Exactly To Shampoo Hair?? 12175 ChanaDelprat1588567 2019-01-13 31
592 Sports Jerseys For Casual Style 36414 ErikaLeavitt7196 2019-01-13 28
591 Uncover Wonderful Assistance On Selling Our Home In Las Vegas Nevada 37733 ErmaGreco75297949 2019-01-13 29
590 Service Submission Has Replaced The Search Engine Submission 29893 VickieBroadnax0 2019-01-13 31
589 FBI Sought IPhone Order Before Exhausting Options -U.S. Inspector... MadonnaMajor302 2019-01-13 181
588 How To Locate The Best Location When Buying A Home In Las Vegas 28547 BernadineMattingley 2019-01-13 29
587 Search Engine Submission Companies In India 25046 RemonaE5802191164608 2019-01-13 19
586 Reactive Hypoglycemia And Weight Training: What You Ought To Be Eating! VelmaO468505979175 2019-01-13 17
585 تور کوش آداسی ShawnZepeda084493972 2019-01-13 32
584 Why Vanessa And Angela Simmons Pastry Goods Are Altering Womens Fashion! MacRingrose6327 2019-01-13 25
583 Fabindia Tea Tree Skin Toner Review MaxieMcKeown484043 2019-01-13 33
582 Is It Worth Getting An Affordable Blog Hosting? 15202 RichelleGilbreath30 2019-01-13 25
581 Defend Your Loved Ones And Residence With High-High Quality Stun Guns 19969 ElliottSodersten8239 2019-01-13 17
580 Memorialize Your Very Own Wedding Reception With Eye-catching Las Vegas Wedding Venues 10753 JudsonSilvestri79877 2019-01-13 27
579 Chanel Perfume Classy And Stylish 21051 ClemmieTate110862656 2019-01-13 36
578 A New Plan To Help First-Time Homebuyers 49597 FletaFiedler836208 2019-01-12 27
577 Tiny Cook Islands Win Another World Cup Qualifier CliffIngalls893 2019-01-12 29
576 Benefits Of Having A Estate Agent Website 47390 KandaceGillam9517 2019-01-12 28
575 Present Your Beloved Teacher On The Occasion Of Teachers Day 17358 AllenWestbury551 2019-01-12 30
574 Why You Need To Be An Amazon Associate 29850 MargeneMojica405 2019-01-12 24
573 Advantages Of Having A Estate Agent Website 17513 IanLessard5692056390 2019-01-12 28
572 What You Require To Know About Arthritis 44761 AlisonWray2534940083 2019-01-12 39
571 Understand The Most Recent Photoshop Cs Using Guides 36116 ShellaSpeckman00 2019-01-12 32
570 Cost-free Full Version Pc Game Download 10375 Kareem8520013192 2019-01-12 25
569 Error Authenticating. Either Bad Username/Password Or Your Account Has Outstanding Payments Due 23219 LilaManzo161930154034 2019-01-12 28
568 Buy Panama True Estate With A Self Directed IRA 39999 Zane65047220399787191 2019-01-12 26
567 Free Of Charge Complete Version Pc Game Download 16719 FerneChirnside3607 2019-01-12 32
566 How To Set Up A Residence Recording Studio 48969 LilianaONeill49 2019-01-12 34
565 How Is Directory Submission Valuable In Search Engine Optimization? 39345 LeaHankinson35523 2019-01-12 35
564 How To Write A Great Press Release And Increase Press Release Distribution 39673 EnriquetaSchultheiss 2019-01-12 43
563 Amazing Opal Rings - Discovering The Ideal Opal AshleeSeals54687 2019-01-12 35
562 How Is Directory Submission Useful In Search Engine Optimization? 46404 LindaRhem598802 2019-01-12 34
561 Forbes Newspaper, The Real History 25185 GavinRaposo5620145 2019-01-12 29
560 News And The Internet 40878 BrennaPigdon19646705 2019-01-12 39
559 If The Stocks Start At Just Beneath A Dollar, How Can An Investor Hope To Turn Into Rich In The End? 43598 Iesha5284556863 2019-01-12 30
558 How Cocaine Addiction Affects You 44717 CristineRamer4633 2019-01-12 30
557 Peter The Greats Summer Time Palace St. Petersburg, Russia 41140 CathernGooseberry89 2019-01-12 35
556 The Untapped Benefits Of Gambling 21527 VirgieTighe12219845 2019-01-12 30
555 Chanel Jewelry Shouts Elegance And Style 46911 MelWymark9613948 2019-01-12 35
554 Shield Your Family And Property With High-Quality Stun Guns 16946 Lasonya582277587994 2019-01-12 33
553 The Skinny On Exhaust 15865 AidaLeverett950750 2019-01-12 29
552 Ecommerce With Good Quality Price Range Hosting And Free Computer Software Options 16849 LesHagai104752525765 2019-01-12 29
551 Articles Being An Evergreen Search Engine Optimization Strategy 47481 ClaudiaWgb820172 2019-01-12 28
550 How You Can Have Your Own Personal Business In 24hrs 20211 AlphonseXmh588930033 2019-01-12 36
549 Search Engines And Directories - Understanding The Difference 36770 ArdenSerena37541 2019-01-12 33
548 How Cocaine Addiction Affects You 13952 Maricela38G854043731 2019-01-12 23
547 Error Authenticating. Either Bad Username/Password Or Your Account Has Outstanding Payments Due 12988 ErnestoFletcher81645 2019-01-12 30
546 Finest Thai Restaurant Food Delivery Las Vegas - Acquiring Authentic Asian Food Delivered Very Fast In Las Vegas 46289 ByronStuber39211 2019-01-12 19
545 If The Stocks Start At Just Below A Dollar, How Can An Investor Hope To Grow To Be Rich In The End? 11921 LuisaKfm4544222590 2019-01-12 33
544 An Quick Guide To Building Hyperlinks To Your Web Site 30220 FranciscaWynkoop443 2019-01-12 26
543 Seo Is Really A Never Ending Job 36802 Carmine59537022420 2019-01-12 27
542 Dirk Goes Crazy And Suns Fail To Include! 33951 CIOLarhonda6010360 2019-01-12 32
541 Cocaine Addiction, How Can You Place It? 30805 ValenciaArnett0 2019-01-12 30
540 The Increase, Drop, And Rise Of The Gucci Handbag 25069 CrystalMcSharry1 2019-01-12 24
539 How Relevant Is Your Ecommerce Web Web Site Design? 30337 FinlayFlores8251 2019-01-12 31
538 Post Submission Software - Sure-fire Insider Tips 21388 JGYSal3350857127 2019-01-12 33
537 Providing An Easy Method For Achieving Your DreamsPersonal Loans 39340 JQNDebora84274594 2019-01-12 34
536 The Effects Of Methamphetamine As An Addictive Substance 15113 WinifredRepass3 2019-01-12 33
535 Real Estate Appraisal 46689 StellaHolley18139 2019-01-12 27
534 New Way In The Press Announcements Writing 43782 CruzStansfield693084 2019-01-12 25
533 The Rise, Drop, And Rise Of The Gucci Handbag 24859 HunterMounts52124 2019-01-12 30
532 The Absolute Most Reliable Methods To Improve Search Engine Ranking 22075 RoseanneBracker382 2019-01-12 24
531 Lost Hard Drive: Dont Panic 10199 LorriFranz4810862 2019-01-12 30
530 New Way In The Press Announcements Writing 29723 ReynaGwinn80686 2019-01-12 30
529 Chanel Jewelry Screams Beauty And Complexity 27026 SenaidaQqi1639294233 2019-01-12 24
528 Make Your Prospect More Romantic 24945 MaximilianKeyser483 2019-01-12 26
527 Error Authenticating. Either Bad Username/Password Or Your Account Has Outstanding Payments Due 13809 NoahCribbs07344257 2019-01-12 28
526 A New Pro-gram To Help First-Time Homebuyers 42877 DelphiaHildreth58 2019-01-12 26
525 Dropped Hard Drive: Dont Panic 41443 MarinaReddy04212 2019-01-12 28
524 Driving On Wet Roads 41396 TeresaDooley9323 2019-01-12 34
523 Seo Is Really A Never Ending Job 11514 StefanHarford52944 2019-01-12 31
522 Make Your Prospect More Romantic 39014 Cesar4379275275 2019-01-12 34
521 Error Authenticating. Either Bad Username/Password Or Your Account Has Outstanding Payments Due 19005 WalterKay15229558146 2019-01-12 32
520 Why You Should Be An Amazon Associate 33670 SamualJoiner4992 2019-01-12 35
519 New Way In The Press Announcements Writing 35053 GabrielleSpaulding43 2019-01-12 32
518 Things You Should Know Before Taking Lunesta 10071 MargaritaGertz60 2019-01-12 30
517 Forums - The Company Gold Mine? 24290 TrevorMacalister7583 2019-01-12 40
516 Sports Jerseys For Informal Fashion 17671 Cecilia5285943437442 2019-01-12 36
515 Advantages Of Having A Estate Agent Website 15241 ArmandReis2775573 2019-01-12 30
514 Chanel Jewelry Screams Beauty And Elegance 34495 Fae77925226304629 2019-01-12 31
513 Cisco CCNP / BSCI Tutorial: The BGP Attribute NEXT_HOP 42333 ElizaLepage8698330117 2019-01-12 30
512 New Way In The Press Releases Creating 34890 LorenzoKiley90330 2019-01-12 22
511 Getting Poker Guidance In A Poker Community 25297 JamieStclair6581 2019-01-12 24
510 How To Write A Great Press Release And Increase Press Release Distribution 28610 JermaineLaseron5 2019-01-12 33
509 Forbes Newspaper, The Annals 16406 HeikeOwens38346 2019-01-12 37
508 New Way In-the Press Releases Creating 47174 EdithDodson0552 2019-01-12 29
507 News And The Web 26167 Helen94641958739 2019-01-12 36
506 Error Authenticating. Either Bad Username/Password Or Your Account Has Outstanding Payments Due 39534 NancyT468997030 2019-01-12 29
505 Ecommerce With Quality Spending Budget Hosting And Totally Free Software Program Solutions 17673 Carlton79566923 2019-01-12 30
504 Why You Should Be An Amazon Associate 18665 RobinReeks554662953 2019-01-12 33
503 Make Your Prospect More Romantic 44748 RudolphRowlandson45 2019-01-12 30
502 Picking The Right Shampoo For Your Hair Sort 39498 Damaris83131188 2019-01-12 35
501 Benefits Of Having A Estate Agent Website 34381 FriedaHollis22224 2019-01-12 34
500 Illinois Casinos 43267 HectorTobias66726 2019-01-12 31
499 Seo Is A Never Ending Job 44969 BradleyBroun65593159 2019-01-12 29
498 Chanel Perfume Classy And Elegant 36399 MarlonRue243481510020 2019-01-12 33
497 How Is Directory Submission Valuable In Search Engine Optimization? 14387 Cherie92R194294 2019-01-12 38
496 Dirk Goes Crazy And Suns Neglect To Address! 11661 YongRischbieth5433 2019-01-12 33
495 Chanel Perfume Classy And Sophisticated 42348 KaiSand7232277749341 2019-01-12 23
494 Clinics See N Surge In Tattoo Removals 20731 BernadineClaudio 2019-01-12 30
493 Selecting From The Wide Array Of Adobe Photograph Look Tutorial Selections 19580 LillieClutter3372568 2019-01-12 30
492 Learn The Modern Photoshop Cs Using Tutorials 31657 WinnieKelso015914460 2019-01-12 33
491 Pool Hall Hanging Out 12726 LolaJolly53131997 2019-01-12 24
490 New Way In The Press Announcements Writing 11045 IsisMadera201432 2019-01-12 29
489 Understand The Various Kinds Of Flowers 29008 NeilAgee305830435 2019-01-12 31
488 Cisco CCNP / BSCI Tutorial: The BGP Attribute NEXT_HOP 12206 FletaJ1718026311 2019-01-12 32
487 Sending The Proper Flowers? 39772 AngelesSiede766 2019-01-12 29
486 New Way In The Press Releases Creating 10647 JeremyWebster8484 2019-01-12 34
485 How To Write A Great Press Release And Increase Press Release Distribution 23954 BernadineSerisier76 2019-01-12 31
484 Forbes Newspaper, The Annals 40913 Johnson85M182266 2019-01-12 34
483 Memorialize Your Very Own Marriage Ceremony Using Picturesque Las Vegas Wedding Venues 24238 LucasGardin4333 2019-01-12 26
482 Why You Need To Be An Amazon Associate 30863 IrvingStamper7637243 2019-01-12 32
481 News And The Web 30884 LiamR6010614237290 2019-01-12 31
480 Adult ADHD: Have You Been A Notion Machine? 15571 TatianaPercival6 2019-01-12 29
479 Forbes Newspaper, The History 31250 ElliottMorrell48 2019-01-12 33
478 Get Your Internet Site Listed With Search Engine Submission Services 14969 BrainRahman27341866 2019-01-12 33
477 What Are Detox Drinks? 21896 BeauWade917165160 2019-01-12 25
476 Finest Thai Las Vegas Restaurant Food Delivery - Searching Best Chinese Food Delivered Very Quick In The City Of Lights 20462 IsidroKirsch13495 2019-01-12 35
475 Real Estate Appraisal 34428 IndianaMaclean356870 2019-01-12 32
474 New Way In-the Press Releases Creating 25792 DorieG656829788 2019-01-12 28
473 Dirk Goes Wild And Suns Fail To Cover! 22513 AlonzoHuhn422462976 2019-01-12 27
472 Choose The Best Airsoft Weapon 30628 Hazel60P0271056 2019-01-12 26
471 How To Publish A Great Press Release And Increase Press Release Distribution 27350 RosalinaKovar238412 2019-01-12 28
470 Forum Paid Posting 32138 PatSmiley239602704 2019-01-12 34
469 Picking From-the Variety Of Adobe Image Store Article Selections 15741 LucileAndre37310295 2019-01-12 27
468 Get Your Internet Site Listed With Search Engine Submission Services 46017 JulieJacobsen95 2019-01-12 30
467 Understand The Newest Photoshop Cs Using Courses 21275 BrigidaHargrove9419 2019-01-12 30
466 Error Authenticating. Either Bad Username/Password Or Your Account Has Outstanding Payments Due 15231 FionaBattles321556 2019-01-12 29
465 Picking From-the Variety Of Adobe Image Shop Tutorial Alternatives 20412 IvoryKelley7649 2019-01-12 34
464 Between Scholarship Programs And Student Loans 11012 CorneliusMetcalf471 2019-01-12 36
463 How To Grow A Money Tree 30242 LatanyaParenteau 2019-01-12 31
462 News And The Web 28500 ZackMedlin3152468098 2019-01-12 23
461 Between Scholarship Programs And Student Loans 25577 BettyePmb5939514722 2019-01-12 27
460 What Degree Of Car Insurance Do You Need? 16377 DeniceCharbonneau0 2019-01-12 31
459 Tips In Purchasing A Home In Las Vegas 25954 ToddHartin79936013379 2019-01-12 24
458 Surprise The One You Love Teacher On The Occasion Of Teachers Day 46683 CliffordQ688311295142 2019-01-12 26
457 Real Estate Appraisal 13072 ConcepcionThacker147 2019-01-12 20
456 Las Vegas Jobs 38681 PennyDuq5426416387 2019-01-12 32
455 How Is Directory Submission Beneficial In Search Engine Optimization? 38365 SergioWojcik410 2019-01-12 28
454 Picking From The Wide Array Of Adobe Picture Store Article Choices 41716 EverettRiver35499247 2019-01-12 37
453 How Is Directory Submission Beneficial In Search Engine Optimization? 48167 MillaDeMaistre36 2019-01-12 22
452 Surprise The One That You Love Teacher On The Situation Of Teachers Day 35258 BirgitBaumgartner842 2019-01-12 27
451 New Way In The Press Releases Writing 49926 HaroldCostas409756 2019-01-12 27
450 How To Pick Cost-effective Wellness Insurance In Cincinnati, Ohio 18052 MinnieMatney30248 2019-01-12 33
449 Writing The Article 46314 RoxannaGower7213 2019-01-12 29
448 Getting Poker Assistance In A Poker Community 49710 LeticiaGruner6338372 2019-01-12 30
447 Make Your Prospect More Romantic 20310 CheryleEyre79908008 2019-01-12 33
446 Selecting From The Wide Array Of Adobe Picture Shop Tutorial Choices 12404 Terrence35B45336311 2019-01-12 32
445 Embroidery Digitizing Forums Are Of Good Support 22451 JerilynDunbabin2341 2019-01-12 32
444 Forbes Magazine, The Real History 29307 Blair6823762143058 2019-01-12 30
443 New Way In-the Press Releases Writing 32568 ArdisWithnell282 2019-01-12 32
442 Hold Your Incredible Marriage And Reception In Picturesque Las Vegas Wedding Venues 23435 AnnmarieBold9810 2019-01-12 34
441 A New Plan To Assist First-Time Buyers 12501 RustyGsl4059868115226 2019-01-12 29
440 New Way In The Press Releases Creating 15993 KandiPatteson41 2019-01-12 30
439 An Simple And Easy Guide To Creating Hyperlinks To Your Website 20696 LeonaG3194262554 2019-01-12 29
438 A Couple Of Practical Tips For Internet Marketing 36721 AntonQ562601435335219 2019-01-12 35
437 New Way In-the Press Releases Writing 22531 IsabelCostello68 2019-01-12 32
436 What To Do For Enlarged Prostate Or For Prostate Cancer 26306 JohnnieMarquez176493 2019-01-12 32
435 The IKEA Impact 18067 NRGShawna40353120 2019-01-12 28
434 Find Tremendous Suggestions With Selling Homes In Las Vegas NV 40278 SterlingKeeling48406 2019-01-12 34
433 Search Engines And Directories - Understanding The Difference 31475 BettyChilton676 2019-01-12 34
432 Ecommerce With Top Quality Price Range Hosting And Totally Free Computer Software Options 11121 ErnestineCartwright3 2019-01-12 20
431 News And The Internet 28116 WillWedgwood18963659 2019-01-12 25
430 Three Tested Ways To Handle Your Creating Anxiety 22223 JWIAbbey897339115 2019-01-12 19
429 Dildo The Adult Toy Stimulating Parents Sexual Experience. 14195 AshleighFulcher6134 2019-01-12 32
428 New Way In-the Press Announcements Creating 42263 AngeliaTepper627 2019-01-12 28
427 The Accomplishment Brought By A Medical / Nurse Staffing Agency Organization 45918 ElvisHarkness09321288 2019-01-12 33
426 Best Thai Las Vegas Restaurant Food Delivery - Finding And Locating Thai Food Delivery Very Quick In Las Vegas 36512 EdmundoMcnutt50761 2019-01-12 31
425 A New System To Help First-Time Buyers 36708 TamikaHalligan4839 2019-01-12 35
424 Lost Hard Drive: Dont Panic 27126 ChetPelzer37558705 2019-01-12 32
423 Billiard Gloves. To Wear Them Or To Not Wear Them. 37148 ShaunteKaiser0389237 2019-01-12 33
422 Gift Your Beloved Teacher Around The Occasion Of Teachers Day 25686 LuigiMills593105 2019-01-12 29
421 Error Authenticating. Either Bad Username/Password Or Your Account Has Outstanding Payments Due 37222 JillianDale3551342 2019-01-12 30
420 How Relevant Is Your Ecommerce Web Web Site Design? 38408 XIJLuisa4474725657 2019-01-12 33
419 What To Do For Enlarged Prostate Or For Prostate Cancer 38204 HyeH295081076854204 2019-01-12 27
418 How Company And Family Can (and Does) Mix Well 24623 CarmeloDeLaCondamine 2019-01-12 29
417 Three Tested Approaches To Manage Your Creating Panic 17933 FWEEldon2441541 2019-01-12 33
416 Be-a Writing Whiz Industry Your Articles 28003 Alysa609291036841 2019-01-12 35
415 Real Estate Appraisal 24777 SallyMedland060438 2019-01-12 33
414 Understand The Modern Photoshop Cs Using Guides 15350 VioletteNarvaez1877 2019-01-12 34
413 The Mean KSC Airsoft Guns 19917 MildredLEstrange 2019-01-12 29
412 Dirk Goes Crazy And Suns Fail To Address! 19944 LorenzaMcCauley 2019-01-12 37
411 Promotional Marketing Specialty Youve Waited Long Enough 13139 RandyOrourke93773 2019-01-12 30
410 Hawaii Big Island Vacations: Your Booking Options 30661 MarjoriePeterson 2019-01-12 35
409 Football Q&A: Baseball Facts You May Not Have Known 12107 Kristan19A3484776 2019-01-12 33
408 Spotting Cocaine Addiction 17576 CamillaIvory3475 2019-01-12 34
407 Person Profile: Chris Money-maker 32257 ArturoDing84927173 2019-01-12 31
406 Student Lodging In Canterbury - Four Necessities To Help You Discover Your Home MartaMullings9431512 2019-01-12 23
405 Living-room Furniture 19959 DarrellMcQuillen0874 2019-01-12 36
404 San Francisco Union Square Hotels 23916 CeliaTvb93984617 2019-01-12 29
403 Nike Air Force One 25th Anniversay "Enter The Ithology" 46676 ClintonRunyon25081 2019-01-12 38
402 New Way In-the Press Releases Writing 44354 HenryAshton1753285 2019-01-12 29
401 The Achievement Brought By A Medical / Nurse Staffing Agency Organization 39380 KamSwanton2225828297 2019-01-12 31
400 Areas To Consider Before Having A Home In Las Vegas 16610 HilarioWragge312 2019-01-12 24
399 تور استانبول CarrollJoiner7858055 2019-01-12 32
398 Info On Buying Gold LatriceChun4997950 2019-01-12 24
397 Exercise To Lose Stomach Fat - Are You Aware What Really Works? ArnoldHzi3313985531 2019-01-12 44
396 The Power Transformer Importance And Uses Genie88857828469408 2019-01-12 43
395 Seven Surefire Ways Financial Advisor Will Drive Your Business Into The Ground JordanPuckett968 2019-01-12 40
394 The Ultimate Strategy For Financial Advisor CathleenStarkey9 2019-01-12 49
393 The Honest To Goodness Truth On Financial Advisor JennieBrose5267 2019-01-12 49
392 Get Rid Of Financial Advisor Problems Once And For All LorrieGuerrero28613 2019-01-12 41
391 Don't Just Sit There! Start Getting More Financial Advisor FatimaKantor510 2019-01-12 40
390 Super Easy Ways To Handle Your Extra Financial Advisor TIYFranklyn9940847443 2019-01-12 45
389 Slow Cooker Overviews TomokoEskridge356 2019-01-12 43
388 Five Pimples Avoidance Tips For Scar-Free Pores And Skin SheltonValerio4 2019-01-12 30
387 Buying Adults Pool Components 38313 LylePenrod2221049 2019-01-11 41
386 Error Authenticating. Either Bad Username/Password Or Your Account Has Outstanding Payments Due 10199 JannieMcCann9304 2019-01-11 42
385 Captial Gains Tax Explained 37089 ClarenceMcdonough7 2019-01-11 45
384 Suggesting On Valentine's Day - Steps To Make Sure She Says Yes 19100 HayleyBeavers9629 2019-01-11 38
383 Medical Malpractice 44306 DakotaFlatt4661 2019-01-11 38
382 Asset Capital Finance What Else Would You Like 33048 VanceClouse909369715 2019-01-11 37
381 The Favorable Search For Simple Viagra 45873 JJOAnnie85520701416 2019-01-11 45
380 Three Causes You Must Not Do Cobra 40911 JuanStringer3073 2019-01-11 28
379 Align Your Physique With A Chiropractic Treatment 47383 OKLSherita494561 2019-01-11 34
378 Adult ADHD: Have You Been A Notion Device? 14174 DesmondMedland65 2019-01-11 53
377 Las Vegas Coupons And How To Save 22386 JohnathanMontalvo7 2019-01-11 39
376 Credit And Debt Counselling In Britain 13862 AishaNanya42681 2019-01-11 32
375 From Visual Style To Web Devel-opment What Your Company Needs! 43625 JerriLocke79782982706 2019-01-11 46
374 Error Authenticating. Either Bad Username/Password Or Your Account Has Outstanding Payments Due 18196 MonicaNeighbour1382 2019-01-11 39
373 New Video Releases Are Where It's At 18635 DewayneHipkiss325252 2019-01-11 44
372 Net Conferencing: Some Sort Of Wide Web Wonder 32310 VedaHoyle3823050239 2019-01-11 39
371 Illinois Real Estate 20538 TobyBarrington9995 2019-01-11 34
370 Error Authenticating. Either Bad Username/Password Or Your Account Has Outstanding Payments Due 14641 ReedBonetti9547 2019-01-11 45
369 Order Applied Vehicle 23535 WoodrowMcBrayer967 2019-01-11 34
368 Align Your Physique With A Chiropractic Remedy 43842 Jayden57I7448130 2019-01-11 35
367 Luxury London Hotels Are Dreams Of A Very Long Time 35387 PansyDecosta89974237 2019-01-11 34
366 Error Authenticating. Either Bad Username/Password Or Your Account Has Outstanding Payments Due 32441 EffieBourget31319322 2019-01-11 42
365 Insects And Insect Control 40439 KraigWatling2484 2019-01-11 41
364 Finest Thai Delivery Food Restaurant Las Vegas - Locating Hot Food Delivery Fast In Vegas 21051 Quentin668316622 2019-01-11 45
363 Pests And Insect Control 40127 DakotaAvera859902175 2019-01-11 43
362 Insects And Bug Control 18331 RaquelTnj5655050734 2019-01-11 43
361 Practicing In The Forex Industry 42505 MackenziePigdon 2019-01-11 37
360 Insect Control: Alternatives For Your Need 22807 Chauncey88P556373 2019-01-11 37
359 2.2% Americans Has Psoriasis! 42452 ForrestHooley628 2019-01-11 38
358 Buying Expired Domains For PR, Does It Still Work? 29706 Darren54X7473528 2019-01-11 35
357 The Butt Lift 42987 LionelScheffler 2019-01-11 38
356 All About Coin Collecting: Grade Coins With Ease! 24849 LornaMacdermott814 2019-01-11 42
355 Forums - The Company Gold Mine? 17607 BradWofford5519390357 2019-01-11 39
354 What To Look For In A Complete Coverage Vehicle Insurance Quote In New Jersey 47609 TawnyaOkeefe13665723 2019-01-11 33
353 Medical Malpractice 27957 ZeldaShirley546219 2019-01-11 36
352 From Visual Design To Web Develop-ment What Your Business Needs! 15839 JustinaPence08162 2019-01-11 33
351 The Secret Garden: An Outdoor Las Vegas Wedding Venue 18549 ShannaF59985413897 2019-01-11 33
350 Bugs And Pest Control 24207 KarolinKimbrell 2019-01-11 43
349 Discount Coupon Book 12690 PMBBrodie47574978695 2019-01-11 42
348 Bug Control: Choices For Your Need 35385 Regina00K0895212 2019-01-11 48
347 Overview Of The Venetian Resort Hotel Casino 15254 FinleyFitzgerald1 2019-01-11 39
346 Bugs And Bug Control 22711 EloyConyers9660 2019-01-11 30
345 Stone Collecting: An Interest That's 'Hard' To Resist 29252 WalkerPraed566925294 2019-01-11 41
344 Child High Seat Information 18314 AlyceO0856834159522 2019-01-11 33
343 Practicing In The Forex Market Place 26005 TeraDollar49256538 2019-01-11 38
342 Medical Malpractice 16569 AndreaPyn721187 2019-01-11 39
341 Locating The Most Readily Useful Laser Hair Removal Treatments In Nyc 49423 ByronArmour8757120008 2019-01-11 30
340 New Video Releases Are Where It Is At 10687 SusanaHairston8362 2019-01-11 42
339 See Who's Connecting For You In The Blogosphere 15149 JaunitaPeyser060 2019-01-11 41
338 Align Your Physique With A Chiropractic Treatment 21126 LeonidaSherrill45760 2019-01-11 42
337 When Fuel Pumps Give Up The Ghost 31481 KlaraMckinney646244 2019-01-11 37
336 Prescription For Achievement 41655 MeiRanford518443729 2019-01-11 43
335 What You Need To Consider Before Getting Ambien 38071 JefferyPaine5399 2019-01-11 37
334 Bug Control: Choices For Your Need 25458 TeddyGlockner469 2019-01-11 37
333 From Graphic Design To Web Develop-ment What Your Business Needs! 11216 JaydenGoris806955 2019-01-11 42
332 When Fuel Pumps Quit The Ghost 29942 LucretiaRichie8 2019-01-11 30
331 Getting Poker Assistance In A Poker Forum 48495 CelestaRubin60369513 2019-01-11 39
330 Finding The Best Laser Hair Removal Solutions In Nyc 46158 DoloresCanady40 2019-01-11 42
329 Choosing A Specialist Rhinoplasty Surgeon 27502 DelmarHollway3325273 2019-01-11 43
328 Memorialize Your Wedding Ceremony And Reception With Eye-catching Las Vegas Wedding Venues 41075 DoloresPolanco60350 2019-01-11 39
327 Mens Underwear The New Sensation 27527 Jared4754007233656749 2019-01-11 40
326 Practicing In The Forex Market 22621 CandaceStump385 2019-01-11 36
325 Seo Is A Constant Job 19378 OscarTeg81681474 2019-01-11 36
324 Net Conferencing: A Global Wide Web Wonder 43343 JosetteMcConnell3540 2019-01-11 37
323 Best Thai Food Delivery Restaurant Las Vegas - Finding And Locating Great Asian Food Delivery Super Fast In Nevada 30304 LatonyaWheat192073 2019-01-11 39
322 Cabanas Dress Up The Patio 14377 JuliusOdonnell73 2019-01-11 37
321 Error Authenticating. Either Bad Username/Password Or Your Account Has Outstanding Payments Due 30040 ClarkMatos97728918 2019-01-11 38
320 Practicing In The Forex Industry 23659 IsabellMosby1089817 2019-01-11 42
319 Inexpensive Car Insurance In Texas 40328 BobbieHorning1492 2019-01-11 40
318 Find Inexpensive Used Car 13207 CharmainFlint105333 2019-01-11 50
317 Choosing The Most Useful Laser Hair Removal Treatments In New York 44274 MohammadH6955636 2019-01-11 37
316 Practicing In The Forex Market 12568 SolSoutherland604 2019-01-11 41
315 How You Can Have Your Personal Business In 24hrs 35556 ElinorGuidry9092237 2019-01-11 47
314 Secure Pest Control Tips 23475 RAUChloe98037459768 2019-01-11 51
313 Why Board Certification Is Very Important When Picking A Plastic Surgeon 38858 LatriceScutt56557047 2019-01-11 38
312 Bugs And Pest Control 12703 CorinneSmathers091 2019-01-11 47
311 How Relevant Is Your Ecommerce Web Internet Site Style? 42569 MercedesTiller357 2019-01-11 43
310 Error Authenticating. Either Bad Username/Password Or Your Account Has Outstanding Payments Due 48937 WilhelminaLassetter2 2019-01-11 50
309 Credit And Debt Counselling In Britain 46698 EvieCxc09295345 2019-01-11 37
308 The Energy Of The Underestimated: Word-of-mouth Marketing 44184 ChristenLassetter506 2019-01-11 45
307 The Butt Lift 13355 Terri954903949466 2019-01-11 34
306 Secure Pest Control Tips 26827 Ulrike03190400280 2019-01-11 42
305 Where Can An Arizona Charter Bus Take Your Group? 14781 Carin22Q197152709 2019-01-11 42
304 What To Look For In A Complete Coverage Vehicle Insurance Coverage Quote In New Jersey 27570 YIFDerick1813146 2019-01-11 44
303 Why Board Certification Is Important When Picking A Plastic Surgeon 47135 InesWaterfield3245 2019-01-11 41
302 Dallas Law :: Do I Need A Lawyer For My Asbestos Lawsuit 16061 NickolasSmythe863 2019-01-11 39
301 Practicing In The Forex Marketplace 32676 JeffColeman4480882 2019-01-11 38
300 Medical Malpractice 13886 DonnieNeely958834 2019-01-11 43
299 Pests And Insect Control 29044 DarrelValazquez408 2019-01-11 36
298 Remember Your Marriage Ceremony And Reception Via Incredible Las Vegas Wedding Venues 27657 LowellFex831814937 2019-01-11 40
297 Webmasters Option For Coupon Codes Generation 38138 EveNall75549994471 2019-01-11 37
296 Practicing In The Forex Market 23482 EdwinAhMouy1461389351 2019-01-11 43
295 News And The Web 41110 KandiFzt3527495 2019-01-11 51
294 Align Your Physique With A Chiropractic Treatment 31714 EarleneFitzRoy0 2019-01-11 43
293 Making Your Backlinks Count I 30774 LavinaLaborde878 2019-01-11 40
292 What You Need To Consider Before Getting Ambien 11767 MitziM24750608836 2019-01-11 38
291 Pests And Insect Control 14441 FernandoZ905417825398 2019-01-11 47
290 How To Create A Great Christian Article 47841 HXXAmado5412932 2019-01-11 40
289 Article Clients: And Writing When Things Do Not Work-out 49083 ElaneMattox3900564224 2019-01-11 39
288 Evaluating Properties: Termite Harm 44369 ZulmaMcn0148258616 2019-01-11 42
287 How To Publish A Good Christian Post 39188 MonroeMcmullen528 2019-01-11 48
286 Practicing In The Forex Marketplace 29356 MeriApodaca769463 2019-01-11 38
285 Getting Low Priced Car Or Truck 26781 JanellI2171099423545 2019-01-11 45
284 The Critical Aspects We Require Pay Interest To For The Shanghai Massage Carlton1089188498 2019-01-11 36
283 Memorialize Your Incredible Wedding Ceremony With Amazing Las Vegas Wedding Venues 29239 AlfieCaro913624 2019-01-11 50
282 Start Your Personal Beauty Supply Business Wholesale Beauty Supply! 37546 JDUNestor843127016 2019-01-11 37
281 Credit Report Is Your Financial Evidence 11579 ShaneGarcia4700 2019-01-11 49
280 Dirk Goes Crazy And Suns Fail To Cover! 30364 RefugioDavid118 2019-01-11 40
279 Peer Pressure And Alcohol: A Difficult Mixture For Several Teens 26495 Bev978417935642028 2019-01-11 42
278 Anybody Can Benefit With A Good Source Of Info Concerning Dental Care 35914 BrettWilliford4 2019-01-11 41
277 See Who's Connecting To You In The Blogosphere 35938 CarmaPedigo3884610 2019-01-11 45
276 Discover All You Need From Home Theater Reviews 28652 ChongHildreth90 2019-01-11 50
275 Memorialize The Best Marriage Ceremony Using Amazing Las Vegas Wedding Venues 15384 Harold8576931350 2019-01-11 45
274 Report On The Venetian Resort Hotel Casino 18775 RosettaJacquez471583 2019-01-11 42
273 Understanding Asset Administration 35301 Fausto94294583565 2019-01-11 33
272 Gambling Addiction: Do Something Prior To It Goes To Far 39578 AletheaFurr08525380 2019-01-11 42
271 Finest Thai Las Vegas Restaurant Food Delivery - Searching Best Chinese Food Delivered Very Quick In The City Of Lights 20462 PamelaHaviland614 2019-01-11 50
270 The Secret Garden: An Outdoor Las Vegas Wedding Venue 10122 MellisaKable2400 2019-01-11 39
269 What You Ought To Consider Before Using Ambien 24982 AureliaRamsden110276 2019-01-11 32
268 What You Need To Consider Before Taking Ambien 14189 MYULloyd87659286 2019-01-11 49
267 Uncover Wonderful Assistance On Selling Our Home In Las Vegas Nevada 37733 LucianaTso8609199 2019-01-11 40
266 Hold Your Amazing Wedding Reception At Stunning Las Vegas Wedding Venues 48308 ShaunteShanahan44015 2019-01-11 40
265 New Video Releases Are Where It Is At 12307 BrandieCuevas0918274 2019-01-11 33
264 Florida Real Estate 16464 ShoshanaKroll3113 2019-01-11 43
263 Practicing In The Forex Market Place 38350 MacHuie61213507945 2019-01-11 42
262 Plastic Surgeons: How To Decide Who To Work Well With 24872 Cleveland00T1195838 2019-01-11 49
261 The Absolute Most Reliable Methods To Improve Search Engine Ranking 43364 NellySverjensky9913 2019-01-11 39
260 Bug Control: Choices For Your Need 45565 AnitraSchlenker92684 2019-01-11 40
259 Where To Attend Find Computer Software Ratings And Reviews 18136 KarriKrouse24392 2019-01-11 37
258 Auto Zone Find All At One Place 38682 FrancescaLlewellyn 2019-01-11 35
257 Discover On-line Auto Loan For Your Automobile 13445 AlisonSpradling452 2019-01-11 37
256 Wholesale Jerseys TXT26178 LeonoraFarrell465844 2019-01-11 35
255 The Accomplishment Brought By A Medical / Nurse Staffing Agency Organization 19057 JulieDeVis63693412 2019-01-11 39
254 Entry Your PC Remotely From Everywhere In The World 16527 BraydenVassallo53 2019-01-11 37
253 How To Do Some Plumbing In Your Own Residence 30175 SungAlford145224 2019-01-11 40
252 Create Muscle Faster By Thinking Good 15136 Marshall04I4598113 2019-01-11 39
251 Align Your Body With A Chiropractic Remedy 45610 VVERosalina839453 2019-01-11 36
250 Insects And Bug Control 44766 RileyEstrada62084331 2019-01-11 35
249 Insects And Insect Control 39609 MatildaBrownrigg 2019-01-11 39
248 Most Effective Thai Restaurant Food Delivery In Las Vegas - Getting Authentic Asian Food Delivered Super Fast In Las Vegas 11655 AjaMarchant9916055 2019-01-11 43
247 Insects And Insect Control 46316 AlinaPiquet1144008 2019-01-11 36
246 Anybody Could Profit With A Great Resource Of Info Concerning Dental Treatment 26209 Tammi6377508062311776 2019-01-11 30
245 How To Do Some Plumbing In Your Own Residence 45194 HattieEqn19767375 2019-01-11 23
244 How Relevant Is Your Ecommerce Internet Web Site Style? 36746 MammieIsj680465 2019-01-11 48
243 Simple Ways To Protect Your Home From Nature 23739 GilbertVonStieglitz 2019-01-11 32
242 Opinions O-n Mountain-bike 35050 VanColton72655176 2019-01-11 50
241 Net Conferencing: Some Sort Of Wide Web Wonder 27706 EverettPearse251261 2019-01-11 49
240 Practicing In The Forex Market 32858 AbrahamOzi5062453148 2019-01-11 40
239 Colorado Cellular House Insurance Companies 14170 AthenaEdinburgh 2019-01-11 36
238 Error Authenticating. Either Bad Username/Password Or Your Account Has Outstanding Payments Due 45231 NickClemmons67330897 2019-01-11 33
237 Buying Expired Domains For PR, Does It Still Work? 30179 DanielR20660341899976 2019-01-11 38
236 Probably The Most Luxurious Vegas Hotels 12919 CornellLattimore557 2019-01-11 36
235 Look Inside To Discover How To Breast-enhancement Benefits 42844 KobyCate48534325 2019-01-11 31
234 Houston Law :: Do I Need An Attorney For My Asbestos Suit 48235 TristaI3417071244149 2019-01-11 32
233 Medical Malpractice 40048 CeciliaHendrickson 2019-01-11 35
232 New Video Releases Are Where It Is At 23088 JinaOrth306810558688 2019-01-11 41
231 A Vital Aspect In Solar Panels - Effectiveness 49712 ChristyMiller4230 2019-01-11 42
230 Automobile Dealer Services In Your Town 34394 JoseVail994837278 2019-01-11 43
229 Credit And Debt Counselling In The UK 24837 BernieceKawamoto 2019-01-11 39
228 Evaluating Homes: Termite Harm 37691 RobbinBrowder02963 2019-01-11 31
227 Prescription For Success 36235 Ronny457052712505 2019-01-11 39
226 Secure Pest Control Tips 19818 OctavioGrout7274822 2019-01-11 37
225 Knowledge Drug And Alcohol Rehabilitation 21212 BernadineCoppola7071 2019-01-11 39
224 News And The Net 23558 ShaunaBroadhurst084 2019-01-11 26
223 On Line Sign Up For Entertainment Coupon Book 28814 AdriannaHagelthorn8 2019-01-11 36
222 Getting Expired Domains For PR, Does It Nevertheless Work? 39796 MarcellaLazenby2763 2019-01-11 39
221 Why Board Certification Is Very Important When Picking A Plastic Surgeon 30235 WilfredoMcDowall442 2019-01-11 43
220 Why Board Certification Is Essential When Selecting A Plastic Surgeon 23239 LatonyaUgd1968473238 2019-01-11 30
219 Picking A Professional Rhinoplasty Surgeon 25970 PrestonHandcock83930 2019-01-11 45
218 Medical Malpractice 49334 SonjaMichaels6816 2019-01-11 33
217 Simple Ways To Protect Your Home From Nature 35665 DeweyRymill6812 2019-01-11 43
216 Las Vegas Weddings: The Shalimar Wedding Chapel 33118 ClarkMackie99172414 2019-01-11 37
215 Most Effective Thai Food Delivery Restaurant Las Vegas - Finding And Locating Thai Food Delivered Super Fast In Nevada 38321 BrittanyIrby812622 2019-01-11 37
214 Practicing In The Forex Market 31265 BrigetteM5240120166 2019-01-11 42
213 Gambling Addiction: Dont Drop Grip On Reality 18363 NilaWhittingham8434 2019-01-11 35
212 New Years Eve Party Considering A Budget 47529 MarlaJarnigan052 2019-01-11 40
211 Bugs And Insect Control 20837 LeonardoRer518670 2019-01-11 37
210 Plastic Surgeons: How To Decide Who To Work With 24826 CheriOrsini5558 2019-01-11 44
209 Tuning Into Orange County Schools 16986 Julieta71D687319 2019-01-11 40
208 Medical Malpractice 22180 FrancesCreighton21 2019-01-11 42
207 Do You Require An Lawyer In Ohio? 21082 Jacquelyn85E23800 2019-01-11 33
206 Best Thai Food Delivery Restaurant Las Vegas - Obtaining Best Thai Food Delivered Very Fast In The Valley 23362 RonaldAlford91141 2019-01-11 44
205 From Visual Design To Web Development What Your Organization Needs! 48572 LeliaRenfro7146 2019-01-11 41
204 Buying Expired Domains For PR, Does It Nevertheless Work? 33765 KandiceTenison5661 2019-01-11 31
203 Greatest Thai Delivery Food Restaurant In Las Vegas - Searching And Acquiring Chinese Food Delivery Very Quick In Las Vegas 26658 EpifaniaAlderson 2019-01-11 64
202 Pests And Pest Control 27614 AleciaHagai127060370 2019-01-11 49
201 Entry Your PC Remotely From Anywhere In-the World 42988 RamonaLinder527444 2019-01-11 38
200 What To Look For In A Complete Coverage Vehicle Insurance Coverage Quote In New Jersey 11148 XTDRoss7238341829 2019-01-11 37
199 Prescription For Achievement 15899 RachaelNeely34053 2019-01-11 34
198 Medical Malpractice 29781 AdrienneGoldhar 2019-01-11 44
197 Locating The Best Laser Hair Removal Solutions In New York 26067 HRGKatrin1723845 2019-01-11 39
196 Practicing In The Forex Industry 42759 FreddieLaw414538 2019-01-11 27
195 Why SEO In Sydney And Get The Most Out Of It? BetseyWinters38 2019-01-11 64
194 Prescription For Success 28442 AntoniettaYms79 2019-01-11 37
193 The Insider Secrets For Renato Franchi Exposed GeoffreyHooley7385335 2019-01-11 32
192 Renato Franchi Reviews & Guide GeoffreyHooley7385335 2019-01-11 28
191 My Life, My Job, My Career: How Three Simple Renato Franchi Helped Me Succeed GeoffreyHooley7385335 2019-01-11 42
» Renato Franchi - The Story GeoffreyHooley7385335 2019-01-11 33
189 The Unexposed Secret Of Renato Franchi GeoffreyHooley7385335 2019-01-11 36
188 Hire Limo Or Party Bus At Most Reasonable Price In Hamilton! GudrunODoherty69 2019-01-11 37
187 Essential Details About Unique Types Of Toronto Limo Service Accessible Right Now ColleenMauro32187879 2019-01-11 35
186 تور آنتالیا KendallRichart6249 2019-01-11 32
185 How To Burn Up Belly Fat Fast AngelineG399002602282 2019-01-11 37
184 How You Can Enhance Your Web Presence With SEO In Sydney SeleneCisneros399974 2019-01-11 45
183 Fetching Fiona And The Sketching Detective Solve The Crisscross Murders Maybelle64C6296 2019-01-11 40
182 Using Table Lamps In Decorating LeeStallcup257162636 2019-01-11 36
181 A Few Simple Becoming Tips In Order To Environment ChristianSappington2 2019-01-11 46
180 Would You Like To Spend An Entertaining Weekend? TressaWhaley210 2019-01-11 42
179 Warning: Luiz Gastão Bittencourt PearlineBoothman5 2019-01-11 43
178 7 Reasons Abraham Lincoln Would Be Great At Luiz Gastão Bittencourt PearlineBoothman5 2019-01-11 40
177 Four Key Tactics The Pros Use For Luis Gastao Bittencourt PearlineBoothman5 2019-01-11 36
176 Vital Information Concerning Several Types Of Juice Recipes Obtainable Right Now JaimeEdmondstone1073 2019-01-11 40
175 Luiz Gastão Bittencourt - Overview PearlineBoothman5 2019-01-11 30
174 Optimal Way To Make The Most From Your Party Limo EarlLamm725439866 2019-01-11 36
173 Online Gambling Casino Antony69K75076716 2019-01-11 47
172 Luxurious Car Rental Deal In Los Angeles ElizaWoi84542076 2019-01-11 34
171 How To Get The Most Out Of Your Content LoisCarandini8459 2019-01-11 36
170 Realm Royale's Closed Beta Starts On Consoles Next Week TeresitaN422279899 2019-01-11 36
169 Renato Franchi Can Be Fun For Everyone GeoffreyHooley7385335 2019-01-11 37
168 All Sorts Of Facts You Have To Comprehend Concerning Toronto Wedding Limo Alternatives LesterGoodsell6 2019-01-11 46
167 Believing These Seven Myths About Luis Gastao Bittencourt Keeps You From Growing PearlineBoothman5 2019-01-11 38
166 How Three Things Will Change The Way You Approach Klefer KarlV2196797710 2019-01-11 34
165 Do Klefer Better Than Seth Godin KarlV2196797710 2019-01-11 39
164 Five Most Well Guarded Secrets About Klefer KarlV2196797710 2019-01-11 40
163 10 Facts Everyone Should Know About Klefer KarlV2196797710 2019-01-11 36
162 The Basics Of Klefer That You Can Benefit From Starting Today KarlV2196797710 2019-01-11 47
161 Believe In Your Klefer Skills But Never Stop Improving KarlV2196797710 2019-01-11 36
160 What Are Detox Drinks? 39700 BennieDietz994946 2019-01-10 39
159 How To Uncover A Good Marriage Ceremony Videographer ZYUHye691317008461 2019-01-10 43
158 Boost Your Career With Online University Programs LutherFunkhouser6878 2019-01-10 37
157 تور اروپا IngeAusterlitz35698 2019-01-10 29
156 Easy Front Yard Landscaping 18898 MarionBranch5237 2019-01-10 43
155 Consider Best Toronto Party Bus Rentals WilmerDriskell543273 2019-01-10 41
154 Close Vacation Holiday From Neighborhood Detroit O-n The Shores Of Lake Huron 36196 BenitoBrock4119 2019-01-10 55
153 Colon Surgery - What're Your Options? 17094 RafaelBennett65036 2019-01-10 36
152 Error Authenticating. Either Bad Username/Password Or Your Account Has Outstanding Payments Due 13973 JamikaKethel79046 2019-01-10 44
151 Rehab Physiotherapy 19617 DarrelWitcher7114 2019-01-10 40
150 Cocaine Addiction, How Can You Place It? 37444 LindsayMacmillan 2019-01-10 36
149 Get Your Website Listed With Search Engine Submission Services 23536 TandyVera996125 2019-01-10 44
148 Its Time To Set Up A Direct Mail Strategy For Your Organization 17811 CornellPedersen7 2019-01-10 47
147 Close Vacation Escape From Metro Detroit On The Shores Of Lake Huron 37684 AnastasiaS45440026832 2019-01-10 41
146 Stopping The Alcohol And Drug Temptations 11597 RichieLacy6337123805 2019-01-10 41
145 Easy Front Yard Landscaping 39932 ReaganC674081107843 2019-01-10 50
144 Kapalabhati - A Breathing Exercise 12157 JacquettaLemaster3 2019-01-10 48
143 How Cocaine Addiction Hurts You 13532 JimmyScollen7681766 2019-01-10 41
142 Corporate Travel 20070 NonaIngram9861028 2019-01-10 47
141 Be A Creating Whiz Market Your Articles 45974 LoraBurn969264533160 2019-01-10 47
140 Close Vacation Escape From Metro Detroit O-n The Shores Of Lake Huron 36000 DCXKimber425030 2019-01-10 51
139 Entertainment Coupon Book Register 45107 Drew04N65630885 2019-01-10 709
138 Close Vacation Holiday From Neighborhood Detroit O-n The Shores Of Lake Huron 33910 StephanieBrophy670 2019-01-10 44
137 On The Web Shopping Guidelines 40123 StephanieCaffyn0 2019-01-10 42
136 Methods For Choosing And Contracting A Home Remodeling Basic Company 42629 TobiasBoucicault4 2019-01-10 45
135 How To Make Your Backlinks Depend I 20042 AngelikaSeibert36656 2019-01-10 44
134 Choosing The Proper Wedding Photographer 43606 DarinDuggan879029 2019-01-10 48
133 Dont Neglect The Party Supplies! 18401 DiannePendergrass822 2019-01-10 40
132 On The Web Entertainment Coupon Book 37701 LeonoreColley93 2019-01-10 33
131 How Starting Your Own 'State Team' Can Increase Your Revenues! 20634 TimDah7045476740590 2019-01-10 48
130 Grocery Coupon Solution To Simplify Your Grocery List 15326 LavonJpl59084591190 2019-01-10 42
129 2006 Entertainment Coupon Book 29541 KirkAusterlitz813 2019-01-10 35
128 Family Discount Coupon Book 20922 Graciela21I9731 2019-01-10 40
127 The Most Reliable Ways To Improve Search Engine Ranking 47023 CeliaBeatty3149836 2019-01-10 46
126 Close Trip Escape From City Detroit On The Shores Of Lake Huron 22693 YolandaTap843316592 2019-01-10 45
125 Seo Is Really A Constant Job 16295 EleanoreMahomet84603 2019-01-10 42
124 A Review Of Drug Abuse Treatment Centers 26617 BraydenRoberts25 2019-01-10 46
123 The Absolute Most Reliable Approaches To Improve Search Engine Ranking 27584 AdellRubio8101571 2019-01-10 51
122 The Role Of The Private Investigator Within The Criminal Justice Field 19515 KennithE55420243 2019-01-10 39
121 Promotion For Coupon Book 40751 IrwinThornburg8648 2019-01-10 46
120 Casino Slots StacyWales20999646486 2019-01-10 31
119 Plumbing Issues May Require A Plumbing Specialist 23835 MaximoDeSalis09279 2019-01-10 41
118 Grocery Coupon Solution To Simplify Your Grocery List 22279 AntonettaMcqueen068 2019-01-10 42
117 See Who's Relating For Your Requirements Within The Blogosphere 37291 KristySellers01634345 2019-01-10 56
116 Plumbing Dilemmas May Demand A Plumbing Contractor 28482 LFNValencia7997151 2019-01-10 46
115 Exactly How To Figure Out A Show Download Service Martina1495847970 2019-01-10 46
114 Family Discount Coupon Book 23644 LandonGalarza83 2019-01-10 43
113 The Absolute Most Reliable Methods To Improve Search Engine Ranking 18623 Hwa688841293276 2019-01-10 54
112 The Future Of Drug-testing - Hair Testing 30516 Reda34W12703138409477 2019-01-10 49
111 Words That Can Help You Save Big Style In Treatment Real-estate 48216 HMLShanna246081194450 2019-01-10 63
110 Close Vacation Get-away From Metro Detroit On The Shores Of Lake Huron 39590 JonathonKayser36893 2019-01-10 55